G1OCN-WX Weather Reports


time (UTC)temp
C
wind
direction
speed
KPH
gust
KPH
rain 1hr
cm
rain 24hr
cm
rain mn
cm
humidity
%
barometer
mb
20260510142859 13 46 27.4 32.2 0.00 0.00 0.00 63 1014.2
20260510142759 13 50 25.7 33.8 0.00 0.00 0.00 63 1014.2
20260510142659 14 56 25.7 29.0 0.00 0.00 0.00 63 1014.1
20260510142559 13 55 25.7 33.8 0.00 0.00 0.00 62 1014.2
20260510142459 13 51 27.4 32.2 0.00 0.00 0.00 63 1014.2
20260510142329 13 55 24.1 33.8 0.00 0.00 0.00 63 1014.2
20260510142159 13 67 22.5 33.8 0.00 0.00 0.00 62 1014.1
20260510142059 13 64 24.1 33.8 0.00 0.00 0.00 62 1014.2
20260510141929 13 56 29.0 32.2 0.00 0.00 0.00 61 1014.3
20260510141829 13 51 29.0 38.6 0.00 0.00 0.00 61 1014.3
20260510141659 14 51 27.4 32.2 0.00 0.00 0.00 61 1014.3
20260510141558 14 53 24.1 33.8 0.00 0.00 0.00 61 1014.3
20260510141458 14 56 20.9 35.4 0.00 0.00 0.00 62 1014.4
20260510141358 14 53 20.9 27.4 0.00 0.00 0.00 61 1014.4
20260510141258 14 57 20.9 25.7 0.00 0.00 0.00 60 1014.3
20260510141158 14 62 24.1 32.2 0.00 0.00 0.00 59 1014.4
20260510141058 14 61 24.1 32.2 0.00 0.00 0.00 59 1014.3
20260510140958 14 58 19.3 27.4 0.00 0.00 0.00 60 1014.3
20260510140858 14 56 19.3 25.7 0.00 0.00 0.00 61 1014.4
20260510140758 14 50 20.9 25.7 0.00 0.00 0.00 61 1014.4
20260510140658 14 58 22.5 27.4 0.00 0.00 0.00 61 1014.4
20260510140558 14 59 24.1 32.2 0.00 0.00 0.00 61 1014.4
20260510140458 14 50 22.5 32.2 0.00 0.00 0.00 61 1014.4
20260510140358 14 58 24.1 32.2 0.00 0.00 0.00 61 1014.4
20260510140258 14 43 24.1 32.2 0.00 0.00 0.00 61 1014.4
20260510140158 14 57 22.5 32.2 0.00 0.00 0.00 60 1014.5
20260510140058 14 50 25.7 29.0 0.00 0.00 0.00 60 1014.4
20260510135958 14 49 22.5 33.8 0.00 0.00 0.00 61 1014.4
20260510135858 14 58 22.5 29.0 0.00 0.00 0.00 61 1014.5
20260510135757 14 51 24.1 29.0 0.00 0.00 0.00 61 1014.5
20260510135657 14 56 22.5 38.6 0.00 0.00 0.00 62 1014.5
20260510135557 14 53 22.5 25.7 0.00 0.00 0.00 62 1014.5
20260510135457 14 50 27.4 33.8 0.00 0.00 0.00 62 1014.5
20260510135357 14 54 24.1 41.8 0.00 0.00 0.00 63 1014.6
20260510135257 14 52 25.7 32.2 0.00 0.00 0.00 63 1014.6
20260510135157 14 55 22.5 32.2 0.00 0.00 0.00 64 1014.6
20260510135057 13 49 24.1 27.4 0.00 0.00 0.00 63 1014.6
20260510134957 13 56 22.5 32.2 0.00 0.00 0.00 63 1014.6
20260510134827 14 54 20.9 27.4 0.00 0.00 0.00 63 1014.7
20260510134727 14 52 22.5 27.4 0.00 0.00 0.00 62 1014.7
20260510134627 14 58 22.5 29.0 0.00 0.00 0.00 62 1014.7
20260510134527 14 47 24.1 32.2 0.00 0.00 0.00 62 1014.6
20260510134427 14 48 24.1 32.2 0.00 0.00 0.00 61 1014.7
20260510134257 14 52 19.3 27.4 0.00 0.00 0.00 63 1014.7
20260510134157 14 62 19.3 25.7 0.00 0.00 0.00 64 1014.6
20260510134027 14 66 14.5 25.7 0.00 0.00 0.00 65 1014.6
20260510133927 14 69 14.5 19.3 0.00 0.00 0.00 64 1014.6
20260510133757 13 84 22.5 29.0 0.00 0.00 0.00 62 1014.7
20260510133657 14 87 20.9 25.7 0.00 0.00 0.00 62 1014.6
20260510133557 14 71 22.5 27.4 0.00 0.00 0.00 61 1014.6
20260510133457 14 79 19.3 29.0 0.00 0.00 0.00 62 1014.7
20260510133357 14 75 16.1 25.7 0.00 0.00 0.00 61 1014.7
20260510133257 14 72 16.1 22.5 0.00 0.00 0.00 62 1014.7
20260510133158 13 75 19.3 25.7 0.00 0.00 0.00 61 1014.7
20260510133057 13 79 14.5 20.9 0.00 0.00 0.00 61 1014.7
20260510132957 13 84 20.9 32.2 0.00 0.00 0.00 61 1014.7
20260510132827 13 81 24.1 32.2 0.00 0.00 0.00 60 1014.7
20260510132657 14 77 20.9 24.1 0.00 0.00 0.00 60 1014.7
20260510132557 14 78 19.3 32.2 0.00 0.00 0.00 61 1014.7
20260510132457 14 83 19.3 24.1 0.00 0.00 0.00 61 1014.7
20260510132357 14 84 14.5 24.1 0.00 0.00 0.00 61 1014.7
20260510132257 14 88 19.3 22.5 0.00 0.00 0.00 61 1014.7
20260510132127 14 86 20.9 25.7 0.00 0.00 0.00 60 1014.7
20260510132027 14 84 20.9 32.2 0.00 0.00 0.00 61 1014.7
20260510131857 13 77 16.1 20.9 0.00 0.00 0.00 61 1014.7
20260510131757 13 80 22.5 25.7 0.00 0.00 0.00 61 1014.8
20260510131657 13 80 19.3 32.2 0.00 0.00 0.00 62 1014.7
20260510131527 13 96 19.3 27.4 0.00 0.00 0.00 61 1014.7
20260510131427 13 90 20.9 27.4 0.00 0.00 0.00 62 1014.7
20260510131257 13 98 20.9 22.5 0.00 0.00 0.00 62 1014.7
20260510131127 13 91 25.7 33.8 0.00 0.00 0.00 62 1014.8
20260510130957 13 92 20.9 29.0 0.00 0.00 0.00 62 1014.8
20260510130857 13 94 19.3 24.1 0.00 0.00 0.00 61 1014.8
20260510130757 13 84 20.9 29.0 0.00 0.00 0.00 61 1014.8
20260510130627 13 86 20.9 25.7 0.00 0.00 0.00 62 1014.8
20260510130457 13 107 22.5 29.0 0.00 0.00 0.00 61 1014.8
20260510130357 13 88 20.9 32.2 0.00 0.00 0.00 62 1014.8
20260510130257 13 89 20.9 32.2 0.00 0.00 0.00 61 1014.9
20260510130127 14 90 20.9 27.4 0.00 0.00 0.00 62 1014.9
20260510130027 14 79 19.3 32.2 0.00 0.00 0.00 62 1014.9
20260510125927 14 76 19.3 25.7 0.00 0.00 0.00 62 1014.9
20260510125827 14 81 14.5 24.1 0.00 0.00 0.00 62 1014.9
20260510125657 14 86 20.9 27.4 0.00 0.00 0.00 61 1014.9
20260510125557 14 87 14.5 25.7 0.00 0.00 0.00 62 1014.9
20260510125427 14 74 19.3 25.7 0.00 0.00 0.00 61 1014.9
20260510125327 13 85 24.1 27.4 0.00 0.00 0.00 60 1015.0
20260510125157 14 74 22.5 29.0 0.00 0.00 0.00 61 1014.9
20260510125057 14 74 20.9 27.4 0.00 0.00 0.00 60 1015.0
20260510124957 14 88 24.1 32.2 0.00 0.00 0.00 61 1015.0
20260510124857 14 81 22.5 35.4 0.00 0.00 0.00 61 1015.0
20260510124757 14 84 24.1 25.7 0.00 0.00 0.00 60 1015.0
20260510124657 14 84 22.5 32.2 0.00 0.00 0.00 61 1015.0
20260510124527 14 87 22.5 29.0 0.00 0.00 0.00 60 1015.0
20260510124427 14 69 20.9 25.7 0.00 0.00 0.00 61 1015.1
20260510124327 14 69 19.3 32.2 0.00 0.00 0.00 60 1015.1
20260510124157 13 78 24.1 32.2 0.00 0.00 0.00 60 1015.1
20260510124027 14 80 25.7 35.4 0.00 0.00 0.00 59 1015.1
20260510123927 14 77 24.1 29.0 0.00 0.00 0.00 59 1015.1
20260510123827 14 78 25.7 32.2 0.00 0.00 0.00 60 1015.1
20260510123728 14 75 24.1 35.4 0.00 0.00 0.00 60 1015.1
20260510123557 14 74 22.5 29.0 0.00 0.00 0.00 60 1015.1
20260510123457 14 75 22.5 32.2 0.00 0.00 0.00 60 1015.1
20260510123327 14 78 22.5 32.2 0.00 0.00 0.00 60 1015.1
20260510123157 14 82 19.3 27.4 0.00 0.00 0.00 60 1015.1
20260510123057 14 86 22.5 27.4 0.00 0.00 0.00 60 1015.1
20260510122957 14 81 24.1 32.2 0.00 0.00 0.00 60 1015.1
20260510122857 14 88 22.5 29.0 0.00 0.00 0.00 59 1015.1
20260510122727 14 84 22.5 35.4 0.00 0.00 0.00 59 1015.1
20260510122557 14 69 22.5 38.6 0.00 0.00 0.00 60 1015.2
20260510122457 14 72 19.3 24.1 0.00 0.00 0.00 60 1015.1
20260510122327 13 72 20.9 25.7 0.00 0.00 0.00 60 1015.1
20260510122227 13 77 22.5 33.8 0.00 0.00 0.00 60 1015.1
20260510122127 14 85 20.9 29.0 0.00 0.00 0.00 61 1015.2
20260510122027 13 78 20.9 32.2 0.00 0.00 0.00 60 1015.2
20260510121857 13 77 22.5 32.2 0.00 0.00 0.00 60 1015.2
20260510121727 13 79 20.9 32.2 0.00 0.00 0.00 61 1015.2
20260510121557 13 74 20.9 27.4 0.00 0.00 0.00 60 1015.3
20260510121457 13 78 20.9 33.8 0.00 0.00 0.00 61 1015.2
20260510121357 13 70 19.3 32.2 0.00 0.00 0.00 60 1015.3
20260510121227 13 87 24.1 33.8 0.00 0.00 0.00 60 1015.3
20260510121127 13 82 24.1 37.0 0.00 0.00 0.00 61 1015.3
20260510121027 13 67 24.1 29.0 0.00 0.00 0.00 60 1015.3
20260510120857 13 73 20.9 33.8 0.00 0.00 0.00 60 1015.3
20260510120727 13 84 20.9 29.0 0.00 0.00 0.00 60 1015.3
20260510120557 13 63 22.5 29.0 0.00 0.00 0.00 60 1015.3
20260510120427 13 69 22.5 33.8 0.00 0.00 0.00 60 1015.4
20260510120327 13 72 19.3 32.2 0.00 0.00 0.00 61 1015.3
20260510120227 13 79 20.9 29.0 0.00 0.00 0.00 62 1015.3
20260510120127 13 70 20.9 27.4 0.00 0.00 0.00 62 1015.3
20260510120027 13 74 16.1 27.4 0.00 0.00 0.00 62 1015.3
20260510115857 13 71 20.9 25.7 0.00 0.00 0.00 62 1015.3
20260510115757 13 87 19.3 24.1 0.00 0.00 0.00 63 1015.3
20260510115657 13 75 19.3 27.4 0.00 0.00 0.00 62 1015.3
20260510115557 13 76 22.5 27.4 0.00 0.00 0.00 62 1015.3
20260510115427 13 81 24.1 33.8 0.00 0.00 0.00 62 1015.4
20260510115327 13 85 24.1 32.2 0.00 0.00 0.00 62 1015.3
20260510115229 13 83 25.7 32.2 0.00 0.00 0.00 61 1015.4
20260510115057 13 78 24.1 33.8 0.00 0.00 0.00 61 1015.4
20260510114957 13 84 22.5 33.8 0.00 0.00 0.00 62 1015.4
20260510114857 13 75 20.9 32.2 0.00 0.00 0.00 62 1015.4
20260510114727 13 77 20.9 32.2 0.00 0.00 0.00 62 1015.4
20260510114627 13 91 22.5 32.2 0.00 0.00 0.00 62 1015.4
20260510114457 13 79 20.9 29.0 0.00 0.00 0.00 62 1015.5
20260510114358 13 81 25.7 29.0 0.00 0.00 0.00 61 1015.4
20260510114258 13 77 25.7 35.4 0.00 0.00 0.00 61 1015.5
20260510114127 13 78 20.9 32.2 0.00 0.00 0.00 62 1015.5
20260510114027 13 77 19.3 25.7 0.00 0.00 0.00 62 1015.5
20260510113857 13 76 24.1 33.8 0.00 0.00 0.00 62 1015.5
20260510113757 13 83 20.9 29.0 0.00 0.00 0.00 62 1015.5
20260510113657 13 76 22.5 27.4 0.00 0.00 0.00 61 1015.5
20260510113557 13 89 25.7 32.2 0.00 0.00 0.00 61 1015.5
20260510113457 13 87 27.4 33.8 0.00 0.00 0.00 60 1015.5
20260510113357 13 79 24.1 33.8 0.00 0.00 0.00 61 1015.5
20260510113257 13 73 22.5 32.2 0.00 0.00 0.00 61 1015.5
20260510113127 13 87 22.5 29.0 0.00 0.00 0.00 61 1015.5
20260510112957 13 76 19.3 37.0 0.00 0.00 0.00 61 1015.5
20260510112857 13 67 24.1 29.0 0.00 0.00 0.00 60 1015.5
20260510112757 13 83 25.7 32.2 0.00 0.00 0.00 61 1015.5
20260510112627 13 72 24.1 33.8 0.00 0.00 0.00 61 1015.5
20260510112527 13 79 20.9 27.4 0.00 0.00 0.00 60 1015.5
20260510112357 13 64 20.9 29.0 0.00 0.00 0.00 60 1015.5
20260510112257 13 60 25.7 29.0 0.00 0.00 0.00 59 1015.5
20260510112127 13 62 27.4 33.8 0.00 0.00 0.00 58 1015.5
20260510112027 14 66 27.4 33.8 0.00 0.00 0.00 59 1015.6
20260510111857 14 71 22.5 27.4 0.00 0.00 0.00 60 1015.6
20260510111757 14 75 22.5 27.4 0.00 0.00 0.00 61 1015.5
20260510111627 13 66 27.4 33.8 0.00 0.00 0.00 60 1015.6
20260510111527 13 59 24.1 33.8 0.00 0.00 0.00 61 1015.6
20260510111357 13 60 24.1 33.8 0.00 0.00 0.00 61 1015.6
20260510111257 13 69 24.1 33.8 0.00 0.00 0.00 61 1015.6
20260510111127 13 71 20.9 33.8 0.00 0.00 0.00 62 1015.6
20260510111027 13 70 16.1 25.7 0.00 0.00 0.00 63 1015.6
20260510110927 13 69 20.9 22.5 0.00 0.00 0.00 62 1015.6
20260510110827 13 61 29.0 32.2 0.00 0.00 0.00 62 1015.7
20260510110727 13 63 27.4 38.6 0.00 0.00 0.00 61 1015.6
20260510110557 13 69 24.1 33.8 0.00 0.00 0.00 62 1015.7
20260510110427 13 58 22.5 32.2 0.00 0.00 0.00 61 1015.7
20260510110327 13 67 27.4 38.6 0.00 0.00 0.00 62 1015.7
20260510110227 13 65 25.7 35.4 0.00 0.00 0.00 62 1015.7
20260510110057 13 66 24.1 35.4 0.00 0.00 0.00 62 1015.7
20260510105957 13 61 24.1 32.2 0.00 0.00 0.00 62 1015.7
20260510105857 13 55 24.1 32.2 0.00 0.00 0.00 63 1015.7
20260510105757 13 66 27.4 32.2 0.00 0.00 0.00 61 1015.7
20260510105657 13 51 29.0 38.6 0.00 0.00 0.00 62 1015.7
20260510105527 13 54 22.5 35.4 0.00 0.00 0.00 62 1015.7
20260510105427 13 52 22.5 25.7 0.00 0.00 0.00 62 1015.7
20260510105257 13 64 20.9 29.0 0.00 0.00 0.00 62 1015.7
20260510105157 13 52 24.1 27.4 0.00 0.00 0.00 62 1015.7
20260510105057 13 61 24.1 37.0 0.00 0.00 0.00 61 1015.7
20260510104957 13 54 25.7 32.2 0.00 0.00 0.00 61 1015.7
20260510104857 13 56 27.4 35.4 0.00 0.00 0.00 61 1015.7
20260510104757 13 52 22.5 37.0 0.00 0.00 0.00 62 1015.7
20260510104657 13 61 24.1 25.7 0.00 0.00 0.00 61 1015.7
20260510104557 13 53 25.7 33.8 0.00 0.00 0.00 62 1015.7
20260510104427 13 47 27.4 32.2 0.00 0.00 0.00 61 1015.7
20260510104257 13 66 25.7 33.8 0.00 0.00 0.00 63 1015.7
20260510104127 13 58 27.4 35.4 0.00 0.00 0.00 62 1015.7
20260510103957 13 62 27.4 35.4 0.00 0.00 0.00 62 1015.7
20260510103857 13 52 24.1 35.4 0.00 0.00 0.00 63 1015.8
20260510103727 13 64 25.7 38.6 0.00 0.00 0.00 63 1015.8
20260510103627 13 59 29.0 35.4 0.00 0.00 0.00 62 1015.8
20260510103527 13 58 27.4 40.2 0.00 0.00 0.00 63 1015.8
20260510103427 13 55 25.7 29.0 0.00 0.00 0.00 62 1015.8
20260510103257 13 49 24.1 35.4 0.00 0.00 0.00 63 1015.8
20260510103157 13 47 24.1 32.2 0.00 0.00 0.00 63 1015.8
20260510103057 13 52 27.4 29.0 0.00 0.00 0.00 62 1015.7
20260510102957 13 63 29.0 40.2 0.00 0.00 0.00 63 1015.7
20260510102857 13 67 27.4 37.0 0.00 0.00 0.00 63 1015.8
20260510102727 13 60 29.0 41.8 0.00 0.00 0.00 62 1015.8
20260510102557 13 60 29.0 37.0 0.00 0.00 0.00 62 1015.8
20260510102427 13 66 29.0 41.8 0.00 0.00 0.00 63 1015.7
20260510102327 13 65 25.7 41.8 0.00 0.00 0.00 64 1015.7
20260510102227 13 67 27.4 37.0 0.00 0.00 0.00 63 1015.7
20260510102057 13 58 22.5 41.8 0.00 0.00 0.00 64 1015.7
20260510101957 13 60 25.7 25.7 0.00 0.00 0.00 63 1015.7
20260510101857 13 61 27.4 41.8 0.00 0.00 0.00 64 1015.7
20260510101727 13 54 24.1 35.4 0.00 0.00 0.00 65 1015.7
20260510101627 13 53 22.5 27.4 0.00 0.00 0.00 65 1015.7
20260510101527 13 48 24.1 27.4 0.00 0.00 0.00 65 1015.7
20260510101427 12 54 24.1 37.0 0.00 0.00 0.00 66 1015.7
20260510101327 12 50 25.7 33.8 0.00 0.00 0.00 65 1015.7
20260510101157 12 54 33.8 38.6 0.00 0.00 0.00 65 1015.7
20260510101027 12 57 32.2 41.8 0.00 0.00 0.00 66 1015.7
20260510100927 12 57 27.4 40.2 0.00 0.00 0.00 66 1015.7
20260510100827 12 63 25.7 41.8 0.00 0.00 0.00 66 1015.7
20260510100727 12 65 33.8 37.0 0.00 0.00 0.00 66 1015.7
20260510100557 12 59 25.7 29.0 0.00 0.00 0.00 67 1015.7
20260510100457 12 58 32.2 40.2 0.00 0.00 0.00 67 1015.8
20260510100327 12 55 33.8 38.6 0.00 0.00 0.00 67 1015.8
20260510100227 12 62 29.0 46.7 0.00 0.00 0.00 67 1015.8
20260510100057 12 58 27.4 35.4 0.00 0.00 0.00 68 1015.8
20260510095957 12 47 25.7 32.2 0.00 0.00 0.00 67 1015.8
20260510095857 12 56 29.0 38.6 0.00 0.00 0.00 67 1015.8
20260510095757 12 59 27.4 40.2 0.00 0.00 0.00 67 1015.8
20260510095627 12 49 32.2 38.6 0.00 0.00 0.00 67 1015.8
20260510095527 12 52 35.4 41.8 0.00 0.00 0.00 66 1015.9
20260510095357 12 53 32.2 45.1 0.00 0.00 0.00 66 1015.9
20260510095257 12 56 33.8 38.6 0.00 0.00 0.00 66 1015.9
20260510095157 12 49 29.0 38.6 0.00 0.00 0.00 66 1015.9
20260510095057 12 54 29.0 33.8 0.00 0.00 0.00 66 1015.9
20260510094957 12 60 32.2 38.6 0.00 0.00 0.00 66 1015.9
20260510094857 12 60 32.2 41.8 0.00 0.00 0.00 67 1015.9
20260510094757 12 52 22.5 38.6 0.00 0.00 0.00 67 1015.9
20260510094657 12 53 27.4 38.6 0.00 0.00 0.00 66 1015.9
20260510094527 12 52 25.7 32.2 0.00 0.00 0.00 66 1015.8
20260510094357 12 58 27.4 32.2 0.00 0.00 0.00 67 1015.9
20260510094257 12 57 29.0 35.4 0.00 0.00 0.00 66 1016.0
20260510094157 12 52 29.0 37.0 0.00 0.00 0.00 66 1016.0
20260510094057 12 55 27.4 38.6 0.00 0.00 0.00 66 1016.0
20260510093957 12 55 27.4 35.4 0.00 0.00 0.00 66 1015.9
20260510093827 12 58 32.2 40.2 0.00 0.00 0.00 66 1016.0
20260510093727 12 52 29.0 40.2 0.00 0.00 0.00 67 1016.0
20260510093627 12 61 24.1 32.2 0.00 0.00 0.00 68 1016.0
20260510093527 12 58 25.7 32.2 0.00 0.00 0.00 67 1016.0
20260510093427 12 55 29.0 38.6 0.00 0.00 0.00 67 1016.0
20260510093326 12 48 27.4 38.6 0.00 0.00 0.00 67 1016.0
20260510093227 12 55 32.2 38.6 0.00 0.00 0.00 67 1016.0
20260510093126 12 56 27.4 41.8 0.00 0.00 0.00 68 1016.0
20260510092956 12 55 25.7 33.8 0.00 0.00 0.00 67 1015.9
20260510092856 12 56 27.4 32.2 0.00 0.00 0.00 67 1015.9
20260510092756 12 54 29.0 35.4 0.00 0.00 0.00 67 1016.0
20260510092656 12 57 29.0 38.6 0.00 0.00 0.00 67 1016.0
20260510092556 12 58 25.7 38.6 0.00 0.00 0.00 68 1015.9
20260510092456 12 65 25.7 37.0 0.00 0.00 0.00 68 1015.9
20260510092356 12 58 24.1 32.2 0.00 0.00 0.00 68 1016.0
20260510092256 12 58 24.1 27.4 0.00 0.00 0.00 68 1016.0
20260510092156 12 53 24.1 32.2 0.00 0.00 0.00 69 1016.0
20260510092056 12 57 25.7 27.4 0.00 0.00 0.00 68 1016.0
20260510091956 12 59 29.0 41.8 0.00 0.00 0.00 68 1016.0
20260510091856 12 59 29.0 41.8 0.00 0.00 0.00 68 1016.0
20260510091756 12 56 35.4 38.6 0.00 0.00 0.00 68 1016.0
20260510091656 12 54 32.2 41.8 0.00 0.00 0.00 68 1016.0
20260510091556 12 58 33.8 38.6 0.00 0.00 0.00 69 1016.0
20260510091456 12 53 33.8 41.8 0.00 0.00 0.00 68 1016.0
20260510091356 12 52 32.2 41.8 0.00 0.00 0.00 68 1016.1
20260510091255 12 54 32.2 45.1 0.00 0.00 0.00 68 1016.0
20260510091155 12 45 29.0 40.2 0.00 0.00 0.00 69 1016.1
20260510091055 12 61 25.7 37.0 0.00 0.00 0.00 69 1016.1
20260510090955 12 52 25.7 32.2 0.00 0.00 0.00 69 1016.1
20260510090855 12 51 27.4 32.2 0.00 0.00 0.00 69 1016.1
20260510090755 11 54 27.4 32.2 0.00 0.00 0.00 68 1016.1
20260510090655 11 53 29.0 37.0 0.00 0.00 0.00 68 1016.0
20260510090555 11 56 27.4 33.8 0.00 0.00 0.00 69 1016.1
20260510090455 11 52 25.7 33.8 0.00 0.00 0.00 69 1016.0
20260510090355 11 63 27.4 32.2 0.00 0.00 0.00 69 1016.0
20260510090255 11 56 32.2 40.2 0.00 0.00 0.00 68 1016.1
20260510090155 11 64 25.7 35.4 0.00 0.00 0.00 69 1016.1
20260510090055 11 58 29.0 38.6 0.00 0.00 0.00 68 1016.1
20260510085955 11 54 27.4 38.6 0.00 0.00 0.00 69 1016.1
20260510085855 11 57 27.4 33.8 0.00 0.00 0.00 69 1016.1
20260510085754 11 58 25.7 37.0 0.00 0.00 0.00 69 1016.1
20260510085654 11 49 29.0 37.0 0.00 0.00 0.00 69 1016.1
20260510085554 11 53 22.5 40.2 0.00 0.00 0.00 69 1016.1
20260510085454 11 56 27.4 27.4 0.00 0.00 0.00 69 1016.1
20260510085354 11 50 32.2 45.1 0.00 0.00 0.00 69 1016.1
20260510085254 11 58 29.0 35.4 0.00 0.00 0.00 68 1016.1
20260510085154 11 51 25.7 41.8 0.00 0.00 0.00 69 1016.1
20260510085054 11 60 27.4 33.8 0.00 0.00 0.00 68 1016.2
20260510084954 11 57 27.4 41.8 0.00 0.00 0.00 69 1016.2
20260510084854 11 57 24.1 37.0 0.00 0.00 0.00 69 1016.1
20260510084754 11 59 27.4 29.0 0.00 0.00 0.00 69 1016.2
20260510084654 11 63 32.2 40.2 0.00 0.00 0.00 68 1016.2
20260510084554 11 60 33.8 41.8 0.00 0.00 0.00 68 1016.1
20260510084453 11 61 32.2 46.7 0.00 0.00 0.00 69 1016.1
20260510084354 11 58 25.7 38.6 0.00 0.00 0.00 69 1016.1
20260510084253 11 62 25.7 37.0 0.00 0.00 0.00 68 1016.1
20260510084153 11 60 27.4 41.8 0.00 0.00 0.00 69 1016.1
20260510084053 11 66 27.4 38.6 0.00 0.00 0.00 69 1016.1
20260510083953 11 64 25.7 32.2 0.00 0.00 0.00 68 1016.1
20260510083853 11 66 27.4 38.6 0.00 0.00 0.00 69 1016.1
20260510083753 11 64 29.0 38.6 0.00 0.00 0.00 69 1016.1
20260510083653 11 65 25.7 38.6 0.00 0.00 0.00 70 1016.1
20260510083553 11 64 27.4 33.8 0.00 0.00 0.00 69 1016.1
20260510083453 11 55 25.7 37.0 0.00 0.00 0.00 70 1016.1
20260510083353 11 61 22.5 32.2 0.00 0.00 0.00 70 1016.1
20260510083253 11 54 22.5 29.0 0.00 0.00 0.00 70 1016.2
20260510083153 11 55 20.9 25.7 0.00 0.00 0.00 70 1016.1
20260510083053 11 59 25.7 29.0 0.00 0.00 0.00 69 1016.2
20260510082952 11 62 22.5 33.8 0.00 0.00 0.00 70 1016.2
20260510082852 11 54 20.9 27.4 0.00 0.00 0.00 70 1016.2
20260510082752 11 53 24.1 29.0 0.00 0.00 0.00 70 1016.2
20260510082652 11 54 24.1 32.2 0.00 0.00 0.00 70 1016.2
20260510082552 11 57 22.5 27.4 0.00 0.00 0.00 69 1016.2
20260510082452 11 56 24.1 35.4 0.00 0.00 0.00 69 1016.2
20260510082352 11 53 22.5 32.2 0.00 0.00 0.00 69 1016.2
20260510082252 11 52 27.4 32.2 0.00 0.00 0.00 68 1016.2
20260510082152 11 60 32.2 40.2 0.00 0.00 0.00 68 1016.2
20260510082052 11 62 25.7 41.8 0.00 0.00 0.00 69 1016.2
20260510081952 11 60 25.7 32.2 0.00 0.00 0.00 69 1016.2
20260510081852 11 55 27.4 32.2 0.00 0.00 0.00 69 1016.2
20260510081752 11 62 27.4 40.2 0.00 0.00 0.00 69 1016.1
20260510081652 11 65 27.4 32.2 0.00 0.00 0.00 69 1016.2
20260510081552 11 67 29.0 37.0 0.00 0.00 0.00 68 1016.2
20260510081452 11 66 25.7 35.4 0.00 0.00 0.00 68 1016.2
20260510081351 11 64 24.1 33.8 0.00 0.00 0.00 68 1016.2
20260510081251 11 65 27.4 33.8 0.00 0.00 0.00 68 1016.2
20260510081151 11 60 29.0 40.2 0.00 0.00 0.00 68 1016.2
20260510081051 11 65 24.1 37.0 0.00 0.00 0.00 69 1016.2
20260510080951 11 63 27.4 35.4 0.00 0.00 0.00 68 1016.2
20260510080851 11 66 29.0 40.2 0.00 0.00 0.00 69 1016.2
20260510080751 11 64 24.1 45.1 0.00 0.00 0.00 69 1016.1
20260510080651 11 56 22.5 27.4 0.00 0.00 0.00 69 1016.1
20260510080551 11 58 27.4 35.4 0.00 0.00 0.00 68 1016.1
20260510080451 11 70 27.4 35.4 0.00 0.00 0.00 68 1016.1
20260510080351 11 65 29.0 38.6 0.00 0.00 0.00 68 1016.1
20260510080251 11 58 25.7 38.6 0.00 0.00 0.00 68 1016.1
20260510080151 11 64 27.4 45.1 0.00 0.00 0.00 68 1016.0
20260510080051 11 61 27.4 41.8 0.00 0.00 0.00 68 1016.1
20260510075951 11 65 32.2 35.4 0.00 0.00 0.00 68 1016.1
20260510075851 11 67 32.2 45.1 0.00 0.00 0.00 68 1016.1
20260510075750 11 60 33.8 41.8 0.00 0.00 0.00 69 1016.1
20260510075620 11 63 32.2 41.8 0.00 0.00 0.00 69 1016.1
20260510075520 11 67 29.0 41.8 0.00 0.00 0.00 69 1016.1
20260510075420 11 66 29.0 41.8 0.00 0.00 0.00 69 1016.1
20260510075320 11 56 25.7 38.6 0.00 0.00 0.00 69 1016.1
20260510075150 11 65 27.4 40.2 0.00 0.00 0.00 69 1016.1
20260510075050 11 63 27.4 40.2 0.00 0.00 0.00 70 1016.1
20260510074950 11 67 22.5 33.8 0.00 0.00 0.00 70 1016.1
20260510074850 11 57 27.4 33.8 0.00 0.00 0.00 70 1016.1
20260510074750 11 67 35.4 41.8 0.00 0.00 0.00 70 1016.2
20260510074650 11 65 32.2 41.8 0.00 0.00 0.00 70 1016.2
20260510074520 11 74 25.7 41.8 0.00 0.00 0.00 70 1016.1
20260510074420 11 61 25.7 32.2 0.00 0.00 0.00 70 1016.2
20260510074320 11 63 32.2 46.7 0.00 0.00 0.00 70 1016.2
20260510074220 11 65 25.7 41.8 0.00 0.00 0.00 71 1016.1
20260510074120 11 64 22.5 32.2 0.00 0.00 0.00 72 1016.1
20260510074020 11 58 24.1 25.7 0.00 0.00 0.00 72 1016.1
20260510073920 11 54 25.7 33.8 0.00 0.00 0.00 72 1016.1
20260510073820 11 60 24.1 38.6 0.00 0.00 0.00 73 1016.1
20260510073720 11 61 20.9 32.2 0.00 0.00 0.00 73 1016.1
20260510073620 11 66 25.7 33.8 0.00 0.00 0.00 72 1016.1
20260510073520 11 63 27.4 35.4 0.00 0.00 0.00 73 1016.1
20260510073420 11 52 22.5 32.2 0.00 0.00 0.00 74 1016.1
20260510073319 11 65 24.1 32.2 0.00 0.00 0.00 74 1016.1
20260510073219 11 66 27.4 32.2 0.00 0.00 0.00 74 1016.1
20260510073119 10 67 27.4 37.0 0.00 0.00 0.00 74 1016.1
20260510073019 10 64 27.4 35.4 0.00 0.00 0.00 74 1016.2
20260510072919 10 61 24.1 33.8 0.00 0.00 0.00 74 1016.1
20260510072819 10 68 20.9 32.2 0.00 0.00 0.00 75 1016.2
20260510072719 10 60 24.1 29.0 0.00 0.00 0.00 74 1016.2
20260510072619 10 68 25.7 29.0 0.00 0.00 0.00 74 1016.2
20260510072519 10 60 29.0 41.8 0.00 0.00 0.00 74 1016.2
20260510072349 10 63 32.2 41.8 0.00 0.00 0.00 74 1016.2
20260510072249 10 60 25.7 37.0 0.00 0.00 0.00 74 1016.1
20260510072149 10 63 25.7 35.4 0.00 0.00 0.00 74 1016.1
20260510072049 10 59 27.4 35.4 0.00 0.00 0.00 74 1016.1
20260510071948 10 60 25.7 41.8 0.00 0.00 0.00 75 1016.1
20260510071848 10 52 27.4 29.0 0.00 0.00 0.00 75 1016.1
20260510071748 10 57 29.0 40.2 0.00 0.00 0.00 75 1016.1
20260510071648 10 58 24.1 35.4 0.00 0.00 0.00 75 1016.1
20260510071548 10 60 25.7 37.0 0.00 0.00 0.00 75 1016.1
20260510071448 10 63 25.7 33.8 0.00 0.00 0.00 75 1016.1
20260510071348 10 64 27.4 35.4 0.00 0.00 0.00 75 1016.1
20260510071248 10 65 25.7 35.4 0.00 0.00 0.00 75 1016.1
20260510071148 10 58 25.7 32.2 0.00 0.00 0.00 75 1016.2
20260510071048 10 56 27.4 37.0 0.00 0.00 0.00 75 1016.1
20260510070948 10 56 27.4 38.6 0.00 0.00 0.00 75 1016.1
20260510070848 10 52 27.4 37.0 0.00 0.00 0.00 76 1016.0
20260510070748 10 57 24.1 37.0 0.00 0.00 0.00 76 1016.0
20260510070648 10 61 25.7 32.2 0.00 0.00 0.00 76 1016.1
20260510070547 10 57 24.1 33.8 0.00 0.00 0.00 76 1016.1
20260510070447 10 60 22.5 32.2 0.00 0.00 0.00 77 1016.1
20260510070347 10 60 22.5 32.2 0.00 0.00 0.00 77 1016.1
20260510070247 10 63 24.1 32.2 0.00 0.00 0.00 77 1016.1
20260510070147 10 56 25.7 32.2 0.00 0.00 0.00 77 1016.1
20260510070047 10 68 27.4 38.6 0.00 0.00 0.00 77 1016.1
20260510065947 10 62 27.4 33.8 0.00 0.00 0.00 77 1016.0
20260510065847 10 63 32.2 38.6 0.00 0.00 0.00 77 1016.1
20260510065747 10 55 27.4 38.6 0.00 0.00 0.00 77 1016.1
20260510065647 10 58 25.7 41.8 0.00 0.00 0.00 77 1016.0
20260510065547 10 61 29.0 41.8 0.00 0.00 0.00 78 1016.0
20260510065447 10 56 25.7 37.0 0.00 0.00 0.00 78 1016.0
20260510065347 10 59 22.5 33.8 0.00 0.00 0.00 78 1016.0
20260510065247 10 52 19.3 25.7 0.00 0.00 0.00 78 1016.0
20260510065146 10 59 25.7 33.8 0.00 0.00 0.00 78 1016.0
20260510065046 10 59 24.1 40.2 0.00 0.00 0.00 78 1016.0
20260510064946 10 63 29.0 38.6 0.00 0.00 0.00 78 1016.0
20260510064846 10 56 25.7 40.2 0.00 0.00 0.00 78 1015.9
20260510064746 10 58 29.0 35.4 0.00 0.00 0.00 78 1016.0
20260510064646 10 58 24.1 40.2 0.00 0.00 0.00 79 1015.9
20260510064546 9 51 27.4 40.2 0.00 0.00 0.00 78 1015.9
20260510064446 9 62 25.7 40.2 0.00 0.00 0.00 79 1015.9
20260510064346 9 57 27.4 29.0 0.00 0.00 0.00 79 1015.9
20260510064246 9 65 32.2 45.1 0.00 0.00 0.00 78 1015.9
20260510064146 9 62 29.0 41.8 0.00 0.00 0.00 79 1015.9
20260510064045 9 58 27.4 45.1 0.00 0.00 0.00 79 1015.9
20260510063915 9 61 25.7 37.0 0.00 0.00 0.00 79 1015.9
20260510063815 9 53 29.0 33.8 0.00 0.00 0.00 79 1015.9
20260510063716 9 65 32.2 41.8 0.00 0.00 0.00 79 1015.9
20260510063615 9 56 29.0 41.8 0.00 0.00 0.00 80 1016.0
20260510063515 9 58 25.7 35.4 0.00 0.00 0.00 80 1015.9
20260510063415 9 58 25.7 35.4 0.00 0.00 0.00 80 1015.9
20260510063315 9 55 32.2 33.8 0.00 0.00 0.00 79 1015.9
20260510063215 9 52 32.2 45.1 0.00 0.00 0.00 80 1015.9
20260510063115 9 58 27.4 37.0 0.00 0.00 0.00 80 1015.9
20260510063015 9 53 27.4 37.0 0.00 0.00 0.00 80 1015.9
20260510062915 9 58 29.0 38.6 0.00 0.00 0.00 80 1015.9
20260510062815 9 59 25.7 32.2 0.00 0.00 0.00 80 1015.8
20260510062715 9 60 25.7 33.8 0.00 0.00 0.00 80 1015.9
20260510062614 8 55 29.0 38.6 0.00 0.00 0.00 80 1015.9
20260510062514 8 60 29.0 40.2 0.00 0.00 0.00 80 1015.8
20260510062414 8 56 32.2 38.6 0.00 0.00 0.00 80 1015.8
20260510062314 8 56 32.2 41.8 0.00 0.00 0.00 80 1015.8
20260510062214 8 58 29.0 37.0 0.00 0.00 0.00 80 1015.7
20260510062114 8 59 27.4 37.0 0.00 0.00 0.00 80 1015.7
20260510062014 8 50 27.4 40.2 0.00 0.00 0.00 80 1015.8
20260510061914 8 59 29.0 33.8 0.00 0.00 0.00 80 1015.7
20260510061814 8 60 29.0 40.2 0.00 0.00 0.00 81 1015.7
20260510061714 8 54 27.4 35.4 0.00 0.00 0.00 81 1015.7
20260510061614 8 51 24.1 33.8 0.00 0.00 0.00 81 1015.7
20260510061514 8 56 32.2 41.8 0.00 0.00 0.00 81 1015.7
20260510061414 8 56 29.0 40.2 0.00 0.00 0.00 81 1015.6
20260510061314 8 52 29.0 40.2 0.00 0.00 0.00 81 1015.7
20260510061213 8 58 32.2 41.8 0.00 0.00 0.00 81 1015.7
20260510061113 8 53 27.4 38.6 0.00 0.00 0.00 81 1015.7
20260510061013 8 58 29.0 38.6 0.00 0.00 0.00 81 1015.7
20260510060913 8 61 32.2 41.8 0.00 0.00 0.00 81 1015.7
20260510060813 8 55 29.0 38.6 0.00 0.00 0.00 81 1015.7
20260510060713 8 62 35.4 41.8 0.00 0.00 0.00 81 1015.7
20260510060613 8 58 32.2 41.8 0.00 0.00 0.00 81 1015.7
20260510060513 8 62 27.4 33.8 0.00 0.00 0.00 81 1015.7
20260510060413 8 54 27.4 33.8 0.00 0.00 0.00 81 1015.7
20260510060313 8 61 32.2 37.0 0.00 0.00 0.00 81 1015.8
20260510060213 8 55 32.2 46.7 0.00 0.00 0.00 81 1015.8
20260510060113 8 56 29.0 33.8 0.00 0.00 0.00 81 1015.8
20260510060013 8 58 29.0 40.2 0.00 0.00 0.00 81 1015.7
20260510055913 8 57 25.7 37.0 0.00 0.00 0.00 81 1015.7
20260510055813 8 60 27.4 37.0 0.00 0.00 0.00 81 1015.7
20260510055713 8 60 27.4 33.8 0.00 0.00 0.00 81 1015.7
20260510055612 8 60 27.4 40.2 0.00 0.00 0.00 81 1015.7
20260510055512 8 56 32.2 40.2 0.00 0.00 0.00 81 1015.7
20260510055412 8 58 29.0 40.2 0.00 0.00 0.00 81 1015.7
20260510055312 8 60 27.4 33.8 0.00 0.00 0.00 81 1015.7
20260510055212 8 55 29.0 35.4 0.00 0.00 0.00 80 1015.7
20260510055112 8 62 27.4 38.6 0.00 0.00 0.00 81 1015.7
20260510055012 8 53 32.2 37.0 0.00 0.00 0.00 81 1015.7
20260510054912 8 56 35.4 45.1 0.00 0.00 0.00 80 1015.7
20260510054812 8 56 32.2 48.3 0.00 0.00 0.00 80 1015.7
20260510054712 8 56 32.2 41.8 0.00 0.00 0.00 80 1015.6
20260510054612 8 56 29.0 40.2 0.00 0.00 0.00 80 1015.6
20260510054512 8 54 33.8 46.7 0.00 0.00 0.00 80 1015.6
20260510054411 8 55 32.2 46.7 0.00 0.00 0.00 81 1015.6
20260510054311 8 60 32.2 40.2 0.00 0.00 0.00 80 1015.6
20260510054211 8 60 37.0 41.8 0.00 0.00 0.00 80 1015.6
20260510054111 8 56 33.8 46.7 0.00 0.00 0.00 80 1015.6
20260510054011 8 54 29.0 41.8 0.00 0.00 0.00 80 1015.6
20260510053911 8 45 27.4 41.8 0.00 0.00 0.00 80 1015.6
20260510053811 8 56 32.2 37.0 0.00 0.00 0.00 80 1015.6
20260510053711 8 53 32.2 38.6 0.00 0.00 0.00 80 1015.6
20260510053611 8 51 27.4 35.4 0.00 0.00 0.00 81 1015.6
20260510053511 8 52 27.4 32.2 0.00 0.00 0.00 81 1015.6
20260510053410 8 51 27.4 32.2 0.00 0.00 0.00 81 1015.7
20260510053310 8 53 25.7 32.2 0.00 0.00 0.00 81 1015.7
20260510053210 8 52 24.1 32.2 0.00 0.00 0.00 80 1015.7
20260510053110 8 54 27.4 40.2 0.00 0.00 0.00 80 1015.7
20260510053010 8 61 27.4 40.2 0.00 0.00 0.00 80 1015.7
20260510052910 8 48 27.4 40.2 0.00 0.00 0.00 80 1015.7
20260510052810 8 52 25.7 37.0 0.00 0.00 0.00 80 1015.7
20260510052710 8 58 33.8 45.1 0.00 0.00 0.00 80 1015.7
20260510052610 8 53 33.8 40.2 0.00 0.00 0.00 80 1015.7
20260510052510 8 60 33.8 40.2 0.00 0.00 0.00 80 1015.7
20260510052410 8 62 32.2 40.2 0.00 0.00 0.00 80 1015.7
20260510052309 8 54 33.8 41.8 0.00 0.00 0.00 80 1015.7
20260510052209 8 50 32.2 40.2 0.00 0.00 0.00 80 1015.7
20260510052109 8 52 32.2 37.0 0.00 0.00 0.00 80 1015.7
20260510052009 8 54 32.2 48.3 0.00 0.00 0.00 80 1015.8
20260510051909 8 50 29.0 37.0 0.00 0.00 0.00 80 1015.8
20260510051809 8 57 25.7 40.2 0.00 0.00 0.00 80 1015.8
20260510051709 8 55 32.2 41.8 0.00 0.00 0.00 80 1015.8
20260510051609 8 59 29.0 41.8 0.00 0.00 0.00 80 1015.8
20260510051509 8 50 27.4 35.4 0.00 0.00 0.00 80 1015.8
20260510051409 8 53 37.0 41.8 0.00 0.00 0.00 80 1015.8
20260510051309 8 56 33.8 49.9 0.00 0.00 0.00 80 1015.8
20260510051209 8 56 29.0 33.8 0.00 0.00 0.00 80 1015.8
20260510051108 8 55 33.8 37.0 0.00 0.00 0.00 80 1015.8
20260510051008 8 58 33.8 45.1 0.00 0.00 0.00 80 1015.8
20260510050908 8 56 29.0 45.1 0.00 0.00 0.00 80 1015.7
20260510050808 8 50 32.2 40.2 0.00 0.00 0.00 80 1015.8
20260510050708 8 50 29.0 40.2 0.00 0.00 0.00 80 1015.7
20260510050608 8 53 29.0 38.6 0.00 0.00 0.00 80 1015.8
20260510050508 8 48 33.8 40.2 0.00 0.00 0.00 80 1015.8
20260510050408 8 56 29.0 38.6 0.00 0.00 0.00 80 1015.8
20260510050308 8 53 29.0 33.8 0.00 0.00 0.00 80 1015.8
20260510050208 8 54 33.8 41.8 0.00 0.00 0.00 80 1015.8
20260510050108 8 55 27.4 40.2 0.00 0.00 0.00 80 1015.8
20260510050008 8 59 32.2 38.6 0.00 0.00 0.00 80 1015.8
20260510045908 8 52 27.4 37.0 0.00 0.00 0.00 80 1015.8
20260510045808 8 57 29.0 33.8 0.00 0.00 0.00 80 1015.8
20260510045707 8 57 29.0 35.4 0.00 0.00 0.00 80 1015.8
20260510045607 8 50 25.7 35.4 0.00 0.00 0.00 80 1015.8
20260510045507 8 55 29.0 32.2 0.00 0.00 0.00 80 1015.7
20260510045407 8 56 33.8 40.2 0.00 0.00 0.00 80 1015.7
20260510045307 8 55 32.2 46.7 0.00 0.00 0.00 80 1015.7
20260510045207 8 53 27.4 38.6 0.00 0.00 0.00 79 1015.7
20260510045107 8 52 27.4 35.4 0.00 0.00 0.00 79 1015.7
20260510045007 9 51 25.7 33.8 0.00 0.00 0.00 80 1015.7
20260510044907 9 56 32.2 35.4 0.00 0.00 0.00 80 1015.7
20260510044807 8 56 33.8 41.8 0.00 0.00 0.00 80 1015.6
20260510044707 9 50 27.4 38.6 0.00 0.00 0.00 80 1015.6
20260510044607 9 57 27.4 35.4 0.00 0.00 0.00 80 1015.6
20260510044507 9 58 27.4 35.4 0.00 0.00 0.00 80 1015.6
20260510044406 9 51 27.4 32.2 0.00 0.00 0.00 79 1015.6
20260510044306 9 51 29.0 40.2 0.00 0.00 0.00 80 1015.5
20260510044206 9 51 27.4 38.6 0.00 0.00 0.00 80 1015.5
20260510044106 9 54 32.2 38.6 0.00 0.00 0.00 80 1015.5
20260510044006 9 59 32.2 41.8 0.00 0.00 0.00 80 1015.5
20260510043906 9 50 29.0 35.4 0.00 0.00 0.00 80 1015.6
20260510043806 9 49 32.2 37.0 0.00 0.00 0.00 79 1015.6
20260510043706 9 52 32.2 40.2 0.00 0.00 0.00 79 1015.5
20260510043606 9 52 27.4 40.2 0.00 0.00 0.00 79 1015.5
20260510043506 9 55 22.5 40.2 0.00 0.00 0.00 79 1015.6
20260510043406 9 57 24.1 32.2 0.00 0.00 0.00 79 1015.5
20260510043306 9 55 29.0 38.6 0.00 0.00 0.00 79 1015.5
20260510043205 9 53 27.4 38.6 0.00 0.00 0.00 79 1015.5
20260510043105 9 55 27.4 32.2 0.00 0.00 0.00 79 1015.5
20260510043005 9 59 27.4 37.0 0.00 0.00 0.00 79 1015.4
20260510042905 9 58 27.4 35.4 0.00 0.00 0.00 79 1015.5
20260510042805 9 50 27.4 32.2 0.00 0.00 0.00 79 1015.5
20260510042705 9 53 27.4 37.0 0.00 0.00 0.00 79 1015.5
20260510042605 9 55 27.4 29.0 0.00 0.00 0.00 79 1015.5
20260510042505 9 56 27.4 35.4 0.00 0.00 0.00 79 1015.5
20260510042405 9 58 29.0 33.8 0.00 0.00 0.00 79 1015.5
20260510042306 9 55 29.0 38.6 0.00 0.00 0.00 79 1015.5
20260510042205 9 54 27.4 37.0 0.00 0.00 0.00 79 1015.5
20260510042105 9 58 27.4 38.6 0.00 0.00 0.00 79 1015.5
20260510042005 9 56 29.0 38.6 0.00 0.00 0.00 79 1015.5
20260510041904 9 57 29.0 37.0 0.00 0.00 0.00 79 1015.5
20260510041804 9 57 32.2 40.2 0.00 0.00 0.00 79 1015.5
20260510041704 9 56 29.0 37.0 0.00 0.00 0.00 79 1015.5
20260510041604 9 53 24.1 32.2 0.00 0.00 0.00 79 1015.5
20260510041504 9 54 25.7 33.8 0.00 0.00 0.00 78 1015.5
20260510041404 9 53 25.7 35.4 0.00 0.00 0.00 78 1015.6
20260510041304 9 55 27.4 38.6 0.00 0.00 0.00 78 1015.6
20260510041204 9 53 27.4 35.4 0.00 0.00 0.00 78 1015.6
20260510041104 9 55 29.0 37.0 0.00 0.00 0.00 78 1015.5
20260510041004 9 52 29.0 35.4 0.00 0.00 0.00 78 1015.6
20260510040904 9 55 27.4 35.4 0.00 0.00 0.00 77 1015.6
20260510040804 9 54 32.2 40.2 0.00 0.00 0.00 77 1015.6
20260510040704 10 53 24.1 37.0 0.00 0.00 0.00 77 1015.6
20260510040604 9 55 24.1 32.2 0.00 0.00 0.00 77 1015.6
20260510040504 10 56 22.5 25.7 0.00 0.00 0.00 77 1015.6
20260510040404 10 57 22.5 29.0 0.00 0.00 0.00 76 1015.6
20260510040303 10 58 27.4 33.8 0.00 0.00 0.00 76 1015.7
20260510040203 10 59 25.7 32.2 0.00 0.00 0.00 76 1015.7
20260510040103 10 60 24.1 32.2 0.00 0.00 0.00 76 1015.7
20260510040003 10 53 22.5 33.8 0.00 0.00 0.00 76 1015.7
20260510035903 10 51 25.7 27.4 0.00 0.00 0.00 76 1015.8
20260510035803 10 59 27.4 40.2 0.00 0.00 0.00 75 1015.7
20260510035703 10 49 29.0 37.0 0.00 0.00 0.00 75 1015.7
20260510035533 10 57 32.2 40.2 0.00 0.00 0.00 75 1015.7
20260510035433 10 61 32.2 37.0 0.00 0.00 0.00 74 1015.8
20260510035333 10 63 35.4 40.2 0.00 0.00 0.00 74 1015.8
20260510035233 10 55 29.0 45.1 0.00 0.00 0.00 74 1015.8
20260510035133 10 51 27.4 38.6 0.00 0.00 0.00 74 1015.8
20260510035033 10 50 25.7 35.4 0.00 0.00 0.00 74 1015.8
20260510034933 10 63 27.4 37.0 0.00 0.00 0.00 74 1015.8
20260510034833 10 54 27.4 45.1 0.00 0.00 0.00 73 1015.8
20260510034732 10 53 27.4 38.6 0.00 0.00 0.00 73 1015.9
20260510034632 10 54 29.0 40.2 0.00 0.00 0.00 73 1015.9
20260510034532 10 51 29.0 33.8 0.00 0.00 0.00 73 1015.9
20260510034432 10 58 29.0 38.6 0.00 0.00 0.00 73 1015.9
20260510034332 10 58 27.4 33.8 0.00 0.00 0.00 72 1015.9
20260510034232 10 59 32.2 41.8 0.00 0.00 0.00 72 1015.9
20260510034132 10 58 29.0 35.4 0.00 0.00 0.00 72 1015.8
20260510034032 10 58 27.4 37.0 0.00 0.00 0.00 72 1015.8
20260510033932 10 50 27.4 38.6 0.00 0.00 0.00 72 1015.9
20260510033832 10 56 27.4 33.8 0.00 0.00 0.00 72 1015.9
20260510033732 10 58 27.4 37.0 0.00 0.00 0.00 71 1015.9
20260510033632 10 55 25.7 37.0 0.00 0.00 0.00 71 1015.8
20260510033531 10 58 27.4 37.0 0.00 0.00 0.00 71 1015.9
20260510033431 10 59 25.7 35.4 0.00 0.00 0.00 71 1015.9
20260510033331 10 59 25.7 32.2 0.00 0.00 0.00 71 1015.9
20260510033231 10 58 27.4 37.0 0.00 0.00 0.00 70 1015.9
20260510033101 10 49 25.7 32.2 0.00 0.00 0.00 70 1015.9
20260510033001 10 53 27.4 38.6 0.00 0.00 0.00 70 1015.9
20260510032831 10 55 29.0 37.0 0.00 0.00 0.00 69 1016.0
20260510032731 10 55 24.1 33.8 0.00 0.00 0.00 69 1016.0
20260510032631 10 56 25.7 33.8 0.00 0.00 0.00 69 1016.0
20260510032531 10 48 27.4 35.4 0.00 0.00 0.00 69 1016.0
20260510032431 10 53 25.7 33.8 0.00 0.00 0.00 69 1016.0
20260510032301 10 55 27.4 35.4 0.00 0.00 0.00 69 1016.0
20260510032201 10 58 27.4 32.2 0.00 0.00 0.00 68 1016.0
20260510032101 10 54 29.0 38.6 0.00 0.00 0.00 68 1016.0
20260510032001 10 55 27.4 33.8 0.00 0.00 0.00 68 1016.0
20260510031901 10 54 25.7 32.2 0.00 0.00 0.00 68 1016.0
20260510031801 10 56 25.7 40.2 0.00 0.00 0.00 68 1016.0
20260510031701 10 56 25.7 32.2 0.00 0.00 0.00 68 1016.1
20260510031601 10 58 27.4 37.0 0.00 0.00 0.00 68 1016.1
20260510031500 10 50 24.1 33.8 0.00 0.00 0.00 68 1016.1
20260510031400 10 51 25.7 33.8 0.00 0.00 0.00 68 1016.1
20260510031300 10 58 25.7 32.2 0.00 0.00 0.00 68 1016.1
20260510031200 10 55 29.0 33.8 0.00 0.00 0.00 67 1016.2
20260510031100 11 58 27.4 35.4 0.00 0.00 0.00 67 1016.2
20260510031000 11 51 24.1 32.2 0.00 0.00 0.00 67 1016.2
20260510030900 11 47 24.1 32.2 0.00 0.00 0.00 67 1016.2
20260510030800 11 56 22.5 32.2 0.00 0.00 0.00 67 1016.1
20260510030700 11 55 24.1 27.4 0.00 0.00 0.00 67 1016.2
20260510030600 11 56 27.4 33.8 0.00 0.00 0.00 67 1016.2
20260510030500 11 53 24.1 33.8 0.00 0.00 0.00 67 1016.2
20260510030330 11 48 22.5 32.2 0.00 0.00 0.00 67 1016.2
20260510030230 11 58 24.1 32.2 0.00 0.00 0.00 67 1016.2
20260510030130 11 50 25.7 32.2 0.00 0.00 0.00 67 1016.2
20260510030030 11 57 24.1 35.4 0.00 0.00 0.00 67 1016.2
20260510025929 11 55 22.5 35.4 0.00 0.00 0.00 67 1016.2
20260510025829 11 57 22.5 27.4 0.00 0.00 0.00 67 1016.2
20260510025729 11 58 22.5 32.2 0.00 0.00 0.00 67 1016.2
20260510025629 11 57 22.5 32.2 0.00 0.00 0.00 67 1016.2
20260510025529 11 55 24.1 29.0 0.00 0.00 0.00 67 1016.1
20260510025429 11 59 25.7 32.2 0.00 0.00 0.00 67 1016.1
20260510025329 11 57 25.7 32.2 0.00 0.00 0.00 66 1016.2
20260510025229 11 57 24.1 32.2 0.00 0.00 0.00 66 1016.2
20260510025129 11 60 24.1 32.2 0.00 0.00 0.00 66 1016.1
20260510025028 11 51 22.5 27.4 0.00 0.00 0.00 66 1016.1
20260510024928 11 49 22.5 29.0 0.00 0.00 0.00 66 1016.2
20260510024828 11 58 24.1 32.2 0.00 0.00 0.00 65 1016.2
20260510024728 11 59 24.1 29.0 0.00 0.00 0.00 64 1016.1
20260510024628 11 57 24.1 29.0 0.00 0.00 0.00 64 1016.1
20260510024528 11 58 24.1 32.2 0.00 0.00 0.00 64 1016.2
20260510024428 12 53 20.9 32.2 0.00 0.00 0.00 64 1016.2
20260510024328 12 61 20.9 27.4 0.00 0.00 0.00 64 1016.2
20260510024228 12 60 19.3 29.0 0.00 0.00 0.00 64 1016.2
20260510024128 12 64 22.5 32.2 0.00 0.00 0.00 63 1016.2
20260510024028 12 54 20.9 29.0 0.00 0.00 0.00 63 1016.2
20260510023928 12 54 19.3 27.4 0.00 0.00 0.00 62 1016.2
20260510023828 12 61 22.5 29.0 0.00 0.00 0.00 62 1016.2
20260510023728 12 66 27.4 33.8 0.00 0.00 0.00 62 1016.2
20260510023628 12 65 25.7 33.8 0.00 0.00 0.00 62 1016.2
20260510023527 12 63 20.9 32.2 0.00 0.00 0.00 62 1016.3
20260510023427 12 61 22.5 22.5 0.00 0.00 0.00 62 1016.2
20260510023327 12 61 25.7 33.8 0.00 0.00 0.00 62 1016.3
20260510023227 12 64 24.1 32.2 0.00 0.00 0.00 62 1016.2
20260510023127 12 63 25.7 32.2 0.00 0.00 0.00 61 1016.2
20260510023027 12 65 24.1 32.2 0.00 0.00 0.00 61 1016.2
20260510022927 12 60 20.9 29.0 0.00 0.00 0.00 62 1016.2
20260510022827 12 64 19.3 24.1 0.00 0.00 0.00 62 1016.2
20260510022727 12 64 20.9 25.7 0.00 0.00 0.00 62 1016.2
20260510022627 12 59 19.3 22.5 0.00 0.00 0.00 61 1016.2
20260510022527 12 67 22.5 24.1 0.00 0.00 0.00 61 1016.3
20260510022427 12 69 19.3 32.2 0.00 0.00 0.00 61 1016.2
20260510022327 12 62 16.1 19.3 0.00 0.00 0.00 61 1016.2
20260510022226 12 64 19.3 22.5 0.00 0.00 0.00 61 1016.3
20260510022126 12 60 16.1 25.7 0.00 0.00 0.00 61 1016.3
20260510022026 12 60 16.1 22.5 0.00 0.00 0.00 61 1016.3
20260510021926 12 70 19.3 27.4 0.00 0.00 0.00 61 1016.3
20260510021826 12 67 16.1 24.1 0.00 0.00 0.00 61 1016.3
20260510021726 12 66 19.3 20.9 0.00 0.00 0.00 60 1016.3
20260510021626 12 66 19.3 25.7 0.00 0.00 0.00 60 1016.3
20260510021526 12 63 16.1 24.1 0.00 0.00 0.00 60 1016.3
20260510021426 12 74 22.5 27.4 0.00 0.00 0.00 60 1016.2
20260510021326 12 70 20.9 29.0 0.00 0.00 0.00 60 1016.2
20260510021226 12 75 22.5 25.7 0.00 0.00 0.00 60 1016.2
20260510021056 12 66 20.9 29.0 0.00 0.00 0.00 60 1016.2
20260510020956 12 73 20.9 27.4 0.00 0.00 0.00 60 1016.2
20260510020855 12 71 16.1 27.4 0.00 0.00 0.00 60 1016.2
20260510020755 12 64 16.1 19.3 0.00 0.00 0.00 61 1016.2
20260510020655 12 65 20.9 24.1 0.00 0.00 0.00 60 1016.2
20260510020555 12 74 20.9 25.7 0.00 0.00 0.00 60 1016.3
20260510020455 12 65 20.9 29.0 0.00 0.00 0.00 61 1016.3
20260510020355 12 66 22.5 29.0 0.00 0.00 0.00 61 1016.2
20260510020255 12 71 22.5 37.0 0.00 0.00 0.00 61 1016.3
20260510020155 12 75 20.9 24.1 0.00 0.00 0.00 61 1016.2
20260510020055 12 69 24.1 27.4 0.00 0.00 0.00 61 1016.3
20260510015955 12 81 22.5 32.2 0.00 0.00 0.00 61 1016.2
20260510015855 12 70 19.3 27.4 0.00 0.00 0.00 61 1016.2
20260510015755 12 74 19.3 27.4 0.00 0.00 0.00 61 1016.2
20260510015655 12 74 19.3 24.1 0.00 0.00 0.00 61 1016.2
20260510015555 12 78 22.5 27.4 0.00 0.00 0.00 61 1016.2
20260510015455 12 68 20.9 33.8 0.00 0.00 0.00 61 1016.3
20260510015355 12 68 19.3 24.1 0.00 0.00 0.00 61 1016.3
20260510015255 12 71 16.1 22.5 0.00 0.00 0.00 61 1016.2
20260510015154 12 71 19.3 22.5 0.00 0.00 0.00 60 1016.2
20260510015054 12 72 20.9 27.4 0.00 0.00 0.00 60 1016.2
20260510014954 12 80 19.3 29.0 0.00 0.00 0.00 60 1016.2
20260510014854 12 71 19.3 25.7 0.00 0.00 0.00 59 1016.3
20260510014754 12 73 24.1 32.2 0.00 0.00 0.00 59 1016.3
20260510014654 12 77 25.7 35.4 0.00 0.00 0.00 59 1016.2
20260510014554 12 76 24.1 32.2 0.00 0.00 0.00 59 1016.3
20260510014454 12 76 20.9 35.4 0.00 0.00 0.00 60 1016.3
20260510014354 12 73 16.1 22.5 0.00 0.00 0.00 60 1016.3
20260510014254 12 74 20.9 29.0 0.00 0.00 0.00 59 1016.3
20260510014154 12 73 20.9 29.0 0.00 0.00 0.00 59 1016.3
20260510014054 12 64 19.3 27.4 0.00 0.00 0.00 59 1016.2
20260510013954 12 70 19.3 27.4 0.00 0.00 0.00 59 1016.3
20260510013854 12 74 19.3 25.7 0.00 0.00 0.00 59 1016.3
20260510013754 12 77 20.9 25.7 0.00 0.00 0.00 59 1016.3
20260510013654 12 75 20.9 32.2 0.00 0.00 0.00 59 1016.3
20260510013554 12 81 20.9 32.2 0.00 0.00 0.00 59 1016.3
20260510013453 12 77 20.9 25.7 0.00 0.00 0.00 58 1016.3
20260510013353 12 70 19.3 27.4 0.00 0.00 0.00 58 1016.3
20260510013253 12 75 16.1 27.4 0.00 0.00 0.00 58 1016.3
20260510013153 12 69 20.9 20.9 0.00 0.00 0.00 58 1016.2
20260510013023 12 72 20.9 29.0 0.00 0.00 0.00 58 1016.3
20260510012923 12 72 20.9 27.4 0.00 0.00 0.00 58 1016.2
20260510012823 12 76 20.9 27.4 0.00 0.00 0.00 58 1016.3
20260510012723 12 68 19.3 29.0 0.00 0.00 0.00 58 1016.3
20260510012623 12 73 19.3 24.1 0.00 0.00 0.00 58 1016.3
20260510012523 12 73 19.3 25.7 0.00 0.00 0.00 58 1016.3
20260510012423 12 70 20.9 27.4 0.00 0.00 0.00 58 1016.3
20260510012323 12 80 16.1 24.1 0.00 0.00 0.00 59 1016.3
20260510012223 12 80 19.3 20.9 0.00 0.00 0.00 59 1016.3
20260510012123 12 76 19.3 27.4 0.00 0.00 0.00 59 1016.3
20260510012023 12 74 19.3 22.5 0.00 0.00 0.00 59 1016.3
20260510011922 12 67 19.3 25.7 0.00 0.00 0.00 58 1016.3
20260510011822 12 70 20.9 25.7 0.00 0.00 0.00 58 1016.3
20260510011726 12 62 19.3 25.7 0.00 0.00 0.00 58 1016.3
20260510011622 12 66 19.3 25.7 0.00 0.00 0.00 58 1016.3
20260510011522 12 69 19.3 32.2 0.00 0.00 0.00 58 1016.3
20260510011422 12 65 19.3 25.7 0.00 0.00 0.00 58 1016.3
20260510011322 12 67 19.3 22.5 0.00 0.00 0.00 59 1016.3
20260510011222 12 62 16.1 25.7 0.00 0.00 0.00 59 1016.3
20260510011122 12 63 16.1 20.9 0.00 0.00 0.00 58 1016.2
20260510011022 12 72 19.3 22.5 0.00 0.00 0.00 58 1016.3
20260510010922 12 65 19.3 27.4 0.00 0.00 0.00 58 1016.2
20260510010822 12 62 22.5 25.7 0.00 0.00 0.00 58 1016.2
20260510010722 12 65 20.9 32.2 0.00 0.00 0.00 58 1016.2
20260510010622 12 63 22.5 25.7 0.00 0.00 0.00 58 1016.2
20260510010522 12 68 25.7 29.0 0.00 0.00 0.00 59 1016.2
20260510010422 12 63 24.1 33.8 0.00 0.00 0.00 59 1016.2
20260510010322 12 65 20.9 32.2 0.00 0.00 0.00 59 1016.2
20260510010221 12 65 16.1 22.5 0.00 0.00 0.00 59 1016.2
20260510010121 12 61 20.9 33.8 0.00 0.00 0.00 60 1016.2
20260510010021 12 60 22.5 29.0 0.00 0.00 0.00 59 1016.2
20260510005921 12 63 19.3 32.2 0.00 0.00 0.00 60 1016.2
20260510005821 12 60 24.1 29.0 0.00 0.00 0.00 59 1016.2
20260510005721 12 60 24.1 29.0 0.00 0.00 0.00 59 1016.2
20260510005621 12 62 20.9 27.4 0.00 0.00 0.00 59 1016.2
20260510005521 12 62 19.3 29.0 0.00 0.00 0.00 59 1016.2
20260510005421 13 65 16.1 24.1 0.00 0.00 0.00 59 1016.1
20260510005321 12 60 19.3 20.9 0.00 0.00 0.00 59 1016.1
20260510005221 12 66 19.3 24.1 0.00 0.00 0.00 59 1016.1
20260510005121 12 69 19.3 24.1 0.00 0.00 0.00 60 1016.2
20260510005021 12 60 16.1 22.5 0.00 0.00 0.00 60 1016.2
20260510004921 12 60 16.1 25.7 0.00 0.00 0.00 60 1016.1
20260510004821 13 64 16.1 19.3 0.00 0.00 0.00 60 1016.2
20260510004720 13 61 19.3 24.1 0.00 0.00 0.00 61 1016.2
20260510004620 13 66 16.1 24.1 0.00 0.00 0.00 61 1016.2
20260510004520 13 63 14.5 20.9 0.00 0.00 0.00 62 1016.2
20260510004350 13 56 14.5 19.3 0.00 0.00 0.00 61 1016.3
20260510004250 13 61 14.5 19.3 0.00 0.00 0.00 61 1016.3
20260510004150 13 63 12.9 19.3 0.00 0.00 0.00 61 1016.3
20260510004050 13 61 14.5 22.5 0.00 0.00 0.00 61 1016.3
20260510003950 13 58 16.1 22.5 0.00 0.00 0.00 60 1016.3
20260510003850 13 63 14.5 19.3 0.00 0.00 0.00 60 1016.4
20260510003750 13 57 12.9 19.3 0.00 0.00 0.00 60 1016.4
20260510003650 13 53 12.9 19.3 0.00 0.00 0.00 60 1016.4
20260510003550 13 59 12.9 16.1 0.00 0.00 0.00 60 1016.4
20260510003450 13 65 19.3 25.7 0.00 0.00 0.00 60 1016.4
20260510003350 13 59 16.1 20.9 0.00 0.00 0.00 60 1016.4
20260510003250 13 58 12.9 20.9 0.00 0.00 0.00 61 1016.4
20260510003150 13 54 12.9 12.9 0.00 0.00 0.00 61 1016.3
20260510003050 13 58 12.9 19.3 0.00 0.00 0.00 62 1016.4
20260510002949 13 56 12.9 19.3 0.00 0.00 0.00 62 1016.3
20260510002849 13 59 12.9 20.9 0.00 0.00 0.00 63 1016.4
20260510002749 13 55 11.3 14.5 0.00 0.00 0.00 63 1016.3
20260510002619 13 56 14.5 14.5 0.00 0.00 0.00 63 1016.3
20260510002519 13 55 16.1 22.5 0.00 0.00 0.00 63 1016.4
20260510002419 13 59 14.5 22.5 0.00 0.00 0.00 64 1016.3
20260510002319 13 65 14.5 19.3 0.00 0.00 0.00 64 1016.4
20260510002219 13 58 12.9 19.3 0.00 0.00 0.00 65 1016.3
20260510002119 13 61 12.9 16.1 0.00 0.00 0.00 66 1016.3
20260510002019 13 63 9.7 14.5 0.00 0.00 0.00 66 1016.3
20260510001919 13 58 11.3 12.9 0.00 0.00 0.00 66 1016.3
20260510001819 13 60 12.9 12.9 0.00 0.00 0.00 66 1016.3
20260510001719 13 59 12.9 16.1 0.00 0.00 0.00 67 1016.3
20260510001619 13 66 11.3 19.3 0.00 0.00 0.00 67 1016.3
20260510001518 13 53 9.7 11.3 0.00 0.00 0.00 66 1016.3
20260510001418 13 58 9.7 12.9 0.00 0.00 0.00 66 1016.3
20260510001318 13 57 9.7 12.9 0.00 0.00 0.00 66 1016.3
20260510001218 13 60 11.3 11.3 0.00 0.00 0.00 66 1016.3
20260510001118 13 66 9.7 14.5 0.00 0.00 0.00 66 1016.3
20260510000948 13 57 12.9 16.1 0.00 0.00 0.00 64 1016.3
20260510000848 13 63 14.5 19.3 0.00 0.00 0.00 63 1016.3
20260510000718 13 64 14.5 16.1 0.00 0.00 0.00 62 1016.3
20260510000548 13 63 14.5 19.3 0.00 0.00 0.00 59 1016.3
20260510000448 13 65 16.1 24.1 0.00 0.00 0.00 58 1016.3
20260510000349 13 69 16.1 22.5 0.00 0.00 0.00 58 1016.3
20260510000249 13 73 19.3 20.9 0.00 0.00 0.00 58 1016.3
20260510000148 13 71 22.5 29.0 0.00 0.00 0.00 58 1016.3
20260510000018 13 68 22.5 27.4 0.00 0.00 0.00 57 1016.3
20260509235918 13 72 19.3 27.4 0.00 0.00 0.00 57 1016.3
20260509235748 13 79 22.5 27.4 0.00 0.00 0.00 57 1016.3
20260509235648 13 80 20.9 25.7 0.00 0.00 0.00 57 1016.2
20260509235518 13 71 22.5 27.4 0.00 0.00 0.00 56 1016.2
20260509235418 13 77 22.5 27.4 0.00 0.00 0.00 56 1016.2
20260509235318 14 78 20.9 27.4 0.00 0.00 0.00 56 1016.2
20260509235148 14 79 27.4 33.8 0.00 0.00 0.00 55 1016.2
20260509235048 14 90 22.5 32.2 0.00 0.00 0.00 55 1016.2
20260509234948 14 79 22.5 32.2 0.00 0.00 0.00 54 1016.2
20260509234818 14 83 25.7 32.2 0.00 0.00 0.00 54 1016.2
20260509234718 14 84 24.1 35.4 0.00 0.00 0.00 54 1016.2
20260509234618 14 85 24.1 35.4 0.00 0.00 0.00 54 1016.2
20260509234448 14 83 22.5 32.2 0.00 0.00 0.00 55 1016.1
20260509234318 14 93 24.1 25.7 0.00 0.00 0.00 55 1016.2
20260509234218 14 91 25.7 33.8 0.00 0.00 0.00 56 1016.1
20260509234048 14 93 22.5 29.0 0.00 0.00 0.00 56 1016.2
20260509233918 14 80 24.1 29.0 0.00 0.00 0.00 57 1016.1
20260509233818 14 88 25.7 29.0 0.00 0.00 0.00 57 1016.1
20260509233648 14 89 29.0 38.6 0.00 0.00 0.00 56 1016.2
20260509233548 14 86 25.7 38.6 0.00 0.00 0.00 56 1016.2
20260509233448 14 91 25.7 32.2 0.00 0.00 0.00 57 1016.2
20260509233318 14 88 25.7 35.4 0.00 0.00 0.00 57 1016.2
20260509233218 14 87 24.1 32.2 0.00 0.00 0.00 57 1016.2
20260509233118 14 95 20.9 35.4 0.00 0.00 0.00 57 1016.3
20260509233018 14 89 25.7 33.8 0.00 0.00 0.00 57 1016.3
20260509232918 14 89 25.7 37.0 0.00 0.00 0.00 57 1016.3
20260509232748 14 86 22.5 32.2 0.00 0.00 0.00 57 1016.3
20260509232618 14 94 25.7 33.8 0.00 0.00 0.00 57 1016.3
20260509232518 14 96 22.5 33.8 0.00 0.00 0.00 56 1016.3
20260509232418 14 91 22.5 27.4 0.00 0.00 0.00 56 1016.3
20260509232248 14 89 20.9 29.0 0.00 0.00 0.00 56 1016.2
20260509232118 14 97 24.1 32.2 0.00 0.00 0.00 56 1016.2
20260509232018 14 96 25.7 33.8 0.00 0.00 0.00 57 1016.3
20260509231918 14 89 22.5 32.2 0.00 0.00 0.00 57 1016.3
20260509231818 14 92 20.9 25.7 0.00 0.00 0.00 57 1016.3
20260509231648 14 82 24.1 33.8 0.00 0.00 0.00 57 1016.3
20260509231548 14 90 24.1 37.0 0.00 0.00 0.00 57 1016.3
20260509231418 14 85 19.3 29.0 0.00 0.00 0.00 58 1016.3
20260509231248 14 84 20.9 27.4 0.00 0.00 0.00 58 1016.3
20260509231118 14 89 20.9 29.0 0.00 0.00 0.00 59 1016.3
20260509230948 14 79 14.5 22.5 0.00 0.00 0.00 61 1016.3
20260509230848 14 88 20.9 25.7 0.00 0.00 0.00 60 1016.3
20260509230718 14 79 22.5 29.0 0.00 0.00 0.00 61 1016.3
20260509230548 14 85 19.3 29.0 0.00 0.00 0.00 63 1016.3
20260509230448 14 83 19.3 25.7 0.00 0.00 0.00 64 1016.3
20260509230348 14 83 16.1 24.1 0.00 0.00 0.00 65 1016.3
20260509230248 14 89 12.9 19.3 0.00 0.00 0.00 66 1016.3
20260509230118 14 75 9.7 19.3 0.00 0.00 0.00 66 1016.3
20260509225948 14 73 16.1 22.5 0.00 0.00 0.00 66 1016.3
20260509225818 14 70 12.9 19.3 0.00 0.00 0.00 67 1016.4
20260509225718 14 72 11.3 14.5 0.00 0.00 0.00 66 1016.3
20260509225548 14 68 11.3 12.9 0.00 0.00 0.00 65 1016.2
20260509225448 14 68 11.3 12.9 0.00 0.00 0.00 65 1016.2
20260509225318 14 75 12.9 16.1 0.00 0.00 0.00 65 1016.2
20260509225148 14 82 11.3 16.1 0.00 0.00 0.00 65 1016.2
20260509225048 14 81 12.9 19.3 0.00 0.00 0.00 65 1016.2
20260509224918 14 79 9.7 14.5 0.00 0.00 0.00 65 1016.2
20260509224818 14 73 9.7 12.9 0.00 0.00 0.00 65 1016.1
20260509224718 15 75 11.3 12.9 0.00 0.00 0.00 66 1016.1
20260509224618 15 63 9.7 14.5 0.00 0.00 0.00 65 1016.2
20260509224448 15 61 11.3 12.9 0.00 0.00 0.00 64 1016.1
20260509224318 15 62 11.3 14.5 0.00 0.00 0.00 64 1016.1
20260509224218 15 70 11.3 14.5 0.00 0.00 0.00 63 1016.1
20260509224118 15 60 12.9 14.5 0.00 0.00 0.00 63 1016.0
20260509223948 15 67 11.3 16.1 0.00 0.00 0.00 63 1016.0
20260509223818 15 68 11.3 19.3 0.00 0.00 0.00 63 1016.0
20260509223648 15 68 11.3 14.5 0.00 0.00 0.00 64 1016.0
20260509223548 15 70 11.3 12.9 0.00 0.00 0.00 63 1016.0
20260509223448 15 71 12.9 14.5 0.00 0.00 0.00 63 1016.0
20260509223348 15 74 14.5 20.9 0.00 0.00 0.00 63 1016.0
20260509223218 15 62 12.9 19.3 0.00 0.00 0.00 62 1016.0
20260509223048 15 67 14.5 19.3 0.00 0.00 0.00 62 1016.0
20260509222918 15 66 16.1 19.3 0.00 0.00 0.00 61 1016.0
20260509222818 15 77 14.5 20.9 0.00 0.00 0.00 61 1016.0
20260509222718 15 71 16.1 16.1 0.00 0.00 0.00 61 1016.0
20260509222618 15 74 19.3 27.4 0.00 0.00 0.00 61 1016.0
20260509222448 15 76 16.1 20.9 0.00 0.00 0.00 61 1015.9
20260509222348 15 74 16.1 20.9 0.00 0.00 0.00 62 1015.9
20260509222218 15 73 16.1 20.9 0.00 0.00 0.00 62 1015.9
20260509222048 15 76 16.1 22.5 0.00 0.00 0.00 62 1015.9
20260509221948 15 72 16.1 22.5 0.00 0.00 0.00 62 1015.9
20260509221818 15 67 16.1 22.5 0.00 0.00 0.00 63 1015.9
20260509221718 15 71 14.5 22.5 0.00 0.00 0.00 63 1015.9
20260509221618 15 69 14.5 19.3 0.00 0.00 0.00 63 1015.9
20260509221448 15 67 12.9 19.3 0.00 0.00 0.00 63 1015.9
20260509221348 15 67 11.3 19.3 0.00 0.00 0.00 64 1015.9
20260509221248 15 66 12.9 14.5 0.00 0.00 0.00 64 1015.9
20260509221148 15 67 12.9 19.3 0.00 0.00 0.00 63 1015.9
20260509221048 15 65 11.3 16.1 0.00 0.00 0.00 63 1015.9
20260509220918 15 63 9.7 12.9 0.00 0.00 0.00 63 1016.0
20260509220818 15 67 11.3 11.3 0.00 0.00 0.00 63 1015.9
20260509220718 15 67 11.3 14.5 0.00 0.00 0.00 63 1015.9
20260509220548 15 65 12.9 19.3 0.00 0.00 0.00 63 1015.9
20260509220448 15 67 12.9 14.5 0.00 0.00 0.00 62 1015.9
20260509220348 15 69 11.3 14.5 0.00 0.00 0.00 62 1015.9
20260509220218 15 64 11.3 14.5 0.00 0.00 0.00 62 1015.9
20260509220118 15 70 12.9 14.5 0.00 0.00 0.00 62 1015.9
20260509215948 15 70 16.1 20.9 0.00 0.00 0.00 63 1015.9
20260509215818 15 73 12.9 20.9 0.00 0.00 0.00 64 1015.9
20260509215648 15 68 11.3 19.3 0.00 0.00 0.00 65 1015.9
20260509215548 15 70 11.3 19.3 0.00 0.00 0.00 65 1015.9
20260509215418 15 71 11.3 16.1 0.00 0.00 0.00 65 1015.9
20260509215248 15 69 12.9 22.5 0.00 0.00 0.00 66 1015.9
20260509215148 15 64 12.9 16.1 0.00 0.00 0.00 66 1015.9
20260509215048 15 67 16.1 19.3 0.00 0.00 0.00 66 1015.9
20260509214918 15 64 11.3 20.9 0.00 0.00 0.00 67 1015.9
20260509214818 15 70 11.3 12.9 0.00 0.00 0.00 66 1015.9
20260509214648 15 65 9.7 11.3 0.00 0.00 0.00 66 1015.9
20260509214518 15 63 9.7 11.3 0.00 0.00 0.00 66 1015.9
20260509214418 15 63 9.7 9.7 0.00 0.00 0.00 66 1015.9
20260509214248 15 63 11.3 14.5 0.00 0.00 0.00 65 1015.9
20260509214148 15 60 9.7 12.9 0.00 0.00 0.00 65 1015.9
20260509214018 15 66 9.7 11.3 0.00 0.00 0.00 65 1015.9
20260509213848 15 64 11.3 12.9 0.00 0.00 0.00 64 1015.9
20260509213748 15 67 11.3 12.9 0.00 0.00 0.00 64 1015.9
20260509213648 15 61 11.3 14.5 0.00 0.00 0.00 64 1015.9
20260509213518 15 63 11.3 16.1 0.00 0.00 0.00 64 1015.9
20260509213348 15 66 9.7 12.9 0.00 0.00 0.00 64 1015.8
20260509213218 15 65 9.7 11.3 0.00 0.00 0.00 64 1015.8
20260509213118 15 64 8.0 9.7 0.00 0.00 0.00 64 1015.8
20260509213018 15 65 8.0 11.3 0.00 0.00 0.00 64 1015.8
20260509212918 15 62 8.0 9.7 0.00 0.00 0.00 63 1015.8
20260509212748 15 63 9.7 12.9 0.00 0.00 0.00 63 1015.8
20260509212618 15 59 9.7 12.9 0.00 0.00 0.00 63 1015.8
20260509212518 15 61 9.7 12.9 0.00 0.00 0.00 63 1015.9
20260509212418 16 59 9.7 9.7 0.00 0.00 0.00 63 1015.9
20260509212248 16 62 9.7 11.3 0.00 0.00 0.00 62 1015.9
20260509212148 16 63 9.7 12.9 0.00 0.00 0.00 62 1015.9
20260509212048 16 61 9.7 11.3 0.00 0.00 0.00 62 1015.8
20260509211948 16 66 9.7 11.3 0.00 0.00 0.00 62 1015.9
20260509211818 16 64 9.7 11.3 0.00 0.00 0.00 62 1015.8
20260509211648 16 65 8.0 8.0 0.00 0.00 0.00 62 1015.8
20260509211548 16 66 8.0 9.7 0.00 0.00 0.00 62 1015.8
20260509211448 16 67 8.0 9.7 0.00 0.00 0.00 61 1015.9
20260509211318 16 66 8.0 8.0 0.00 0.00 0.00 61 1015.8
20260509211218 16 61 8.0 9.7 0.00 0.00 0.00 61 1015.8
20260509211048 16 66 8.0 8.0 0.00 0.00 0.00 61 1015.8
20260509210948 16 62 8.0 8.0 0.00 0.00 0.00 61 1015.8
20260509210848 16 62 8.0 9.7 0.00 0.00 0.00 61 1015.8
20260509210718 16 63 9.7 9.7 0.00 0.00 0.00 61 1015.8
20260509210548 16 62 8.0 9.7 0.00 0.00 0.00 61 1015.8
20260509210418 16 58 8.0 9.7 0.00 0.00 0.00 61 1015.8
20260509210248 16 48 9.7 11.3 0.00 0.00 0.00 61 1015.8
20260509210118 16 46 9.7 11.3 0.00 0.00 0.00 61 1015.8
20260509205948 16 53 8.0 9.7 0.00 0.00 0.00 61 1015.8
20260509205848 16 57 8.0 8.0 0.00 0.00 0.00 61 1015.8
20260509205748 16 56 8.0 9.7 0.00 0.00 0.00 61 1015.8
20260509205618 16 59 8.0 9.7 0.00 0.00 0.00 61 1015.8
20260509205448 16 57 8.0 9.7 0.00 0.00 0.00 61 1015.8
20260509205348 16 55 8.0 9.7 0.00 0.00 0.00 61 1015.8
20260509205218 16 59 8.0 9.7 0.00 0.00 0.00 61 1015.8
20260509205118 16 52 8.0 8.0 0.00 0.00 0.00 61 1015.8
20260509204948 16 51 8.0 9.7 0.00 0.00 0.00 61 1015.8
20260509204848 16 50 9.7 9.7 0.00 0.00 0.00 61 1015.8
20260509204748 16 49 9.7 9.7 0.00 0.00 0.00 61 1015.8
20260509204618 16 52 9.7 11.3 0.00 0.00 0.00 61 1015.8
20260509204448 16 38 9.7 9.7 0.00 0.00 0.00 61 1015.8
20260509204348 16 44 9.7 11.3 0.00 0.00 0.00 61 1015.8
20260509204218 16 42 9.7 12.9 0.00 0.00 0.00 61 1015.8
20260509204118 16 36 8.0 9.7 0.00 0.00 0.00 61 1015.8
20260509204018 16 41 8.0 9.7 0.00 0.00 0.00 61 1015.8
20260509203918 16 41 8.0 9.7 0.00 0.00 0.00 61 1015.8
20260509203748 16 43 4.8 8.0 0.00 0.00 0.00 61 1015.7
20260509203648 16 46 8.0 9.7 0.00 0.00 0.00 61 1015.7
20260509203548 16 44 4.8 9.7 0.00 0.00 0.00 61 1015.7
20260509203417 16 41 8.0 9.7 0.00 0.00 0.00 61 1015.6
20260509203317 16 48 9.7 9.7 0.00 0.00 0.00 61 1015.6
20260509203148 16 40 9.7 11.3 0.00 0.00 0.00 61 1015.5
20260509203048 16 44 9.7 12.9 0.00 0.00 0.00 61 1015.5
20260509202947 16 33 11.3 14.5 0.00 0.00 0.00 60 1015.4
20260509202847 16 34 11.3 12.9 0.00 0.00 0.00 61 1015.4
20260509202747 16 39 12.9 14.5 0.00 0.00 0.00 60 1015.4
20260509202647 16 37 11.3 14.5 0.00 0.00 0.00 61 1015.4
20260509202547 16 39 12.9 14.5 0.00 0.00 0.00 61 1015.4
20260509202447 16 35 12.9 14.5 0.00 0.00 0.00 61 1015.4
20260509202347 16 36 12.9 14.5 0.00 0.00 0.00 60 1015.4
20260509202247 16 31 14.5 16.1 0.00 0.00 0.00 60 1015.4
20260509202147 16 36 12.9 19.3 0.00 0.00 0.00 61 1015.4
20260509202047 16 33 11.3 16.1 0.00 0.00 0.00 61 1015.4
20260509201947 16 40 9.7 11.3 0.00 0.00 0.00 61 1015.4
20260509201846 15 40 11.3 12.9 0.00 0.00 0.00 61 1015.4
20260509201746 15 38 11.3 14.5 0.00 0.00 0.00 61 1015.5
20260509201647 15 39 11.3 12.9 0.00 0.00 0.00 61 1015.5
20260509201546 15 37 11.3 12.9 0.00 0.00 0.00 61 1015.4
20260509201446 15 29 11.3 14.5 0.00 0.00 0.00 61 1015.4
20260509201346 15 30 11.3 14.5 0.00 0.00 0.00 61 1015.4
20260509201246 15 32 11.3 12.9 0.00 0.00 0.00 61 1015.4
20260509201146 15 33 11.3 12.9 0.00 0.00 0.00 61 1015.4
20260509201046 15 26 11.3 12.9 0.00 0.00 0.00 61 1015.4
20260509200946 15 28 12.9 14.5 0.00 0.00 0.00 61 1015.4
20260509200846 15 27 12.9 12.9 0.00 0.00 0.00 61 1015.4
20260509200746 15 31 11.3 14.5 0.00 0.00 0.00 61 1015.4
20260509200646 16 39 12.9 14.5 0.00 0.00 0.00 61 1015.4
20260509200546 16 31 11.3 16.1 0.00 0.00 0.00 61 1015.4
20260509200446 16 32 11.3 12.9 0.00 0.00 0.00 61 1015.4
20260509200346 16 38 11.3 12.9 0.00 0.00 0.00 61 1015.4
20260509200246 16 39 11.3 12.9 0.00 0.00 0.00 61 1015.4
20260509200145 16 36 11.3 12.9 0.00 0.00 0.00 61 1015.4
20260509200045 16 29 11.3 11.3 0.00 0.00 0.00 61 1015.4
20260509195915 16 26 11.3 12.9 0.00 0.00 0.00 61 1015.4
20260509195815 16 30 9.7 12.9 0.00 0.00 0.00 61 1015.5
20260509195715 16 35 9.7 12.9 0.00 0.00 0.00 61 1015.5
20260509195615 16 27 9.7 12.9 0.00 0.00 0.00 61 1015.5
20260509195445 16 33 11.3 12.9 0.00 0.00 0.00 62 1015.5
20260509195345 16 42 9.7 11.3 0.00 0.00 0.00 62 1015.5
20260509195245 16 36 9.7 12.9 0.00 0.00 0.00 62 1015.5
20260509195145 16 38 9.7 11.3 0.00 0.00 0.00 62 1015.5
20260509195045 16 35 9.7 12.9 0.00 0.00 0.00 62 1015.6
20260509194945 16 40 9.7 11.3 0.00 0.00 0.00 62 1015.6
20260509194845 16 38 8.0 11.3 0.00 0.00 0.00 62 1015.6
20260509194745 16 36 9.7 11.3 0.00 0.00 0.00 62 1015.6
20260509194645 16 40 9.7 11.3 0.00 0.00 0.00 62 1015.6
20260509194545 16 36 9.7 9.7 0.00 0.00 0.00 62 1015.6
20260509194445 16 43 8.0 11.3 0.00 0.00 0.00 62 1015.6
20260509194345 15 47 8.0 9.7 0.00 0.00 0.00 62 1015.6
20260509194245 15 47 4.8 9.7 0.00 0.00 0.00 62 1015.6
20260509194145 15 48 8.0 8.0 0.00 0.00 0.00 62 1015.6
20260509194045 15 50 8.0 8.0 0.00 0.00 0.00 62 1015.6
20260509193945 15 52 8.0 8.0 0.00 0.00 0.00 62 1015.6
20260509193844 15 50 8.0 8.0 0.00 0.00 0.00 62 1015.6
20260509193744 15 54 8.0 8.0 0.00 0.00 0.00 62 1015.6
20260509193644 15 55 8.0 8.0 0.00 0.00 0.00 61 1015.6
20260509193544 15 55 8.0 8.0 0.00 0.00 0.00 61 1015.6
20260509193444 15 51 8.0 8.0 0.00 0.00 0.00 61 1015.6
20260509193344 15 54 8.0 8.0 0.00 0.00 0.00 61 1015.5
20260509193244 15 58 8.0 9.7 0.00 0.00 0.00 61 1015.5
20260509193144 15 57 9.7 9.7 0.00 0.00 0.00 62 1015.5
20260509193044 15 58 8.0 9.7 0.00 0.00 0.00 62 1015.5
20260509192944 15 56 8.0 9.7 0.00 0.00 0.00 62 1015.5
20260509192844 15 57 8.0 9.7 0.00 0.00 0.00 62 1015.5
20260509192744 15 56 8.0 9.7 0.00 0.00 0.00 62 1015.5
20260509192644 15 56 8.0 8.0 0.00 0.00 0.00 62 1015.4
20260509192544 15 54 8.0 9.7 0.00 0.00 0.00 62 1015.5
20260509192443 15 58 8.0 9.7 0.00 0.00 0.00 62 1015.5
20260509192343 15 57 8.0 9.7 0.00 0.00 0.00 62 1015.5
20260509192243 15 58 8.0 8.0 0.00 0.00 0.00 62 1015.4
20260509192143 15 58 8.0 8.0 0.00 0.00 0.00 61 1015.4
20260509192043 15 57 8.0 8.0 0.00 0.00 0.00 61 1015.4
20260509191943 15 56 8.0 9.7 0.00 0.00 0.00 61 1015.4
20260509191843 15 58 8.0 8.0 0.00 0.00 0.00 61 1015.3
20260509191743 15 53 8.0 8.0 0.00 0.00 0.00 61 1015.3
20260509191643 15 57 8.0 9.7 0.00 0.00 0.00 61 1015.3
20260509191543 15 58 8.0 8.0 0.00 0.00 0.00 61 1015.3
20260509191443 15 57 8.0 9.7 0.00 0.00 0.00 61 1015.3
20260509191343 15 59 8.0 9.7 0.00 0.00 0.00 61 1015.3
20260509191242 15 57 8.0 8.0 0.00 0.00 0.00 61 1015.3
20260509191142 15 58 8.0 9.7 0.00 0.00 0.00 61 1015.4
20260509191042 15 61 8.0 9.7 0.00 0.00 0.00 61 1015.4
20260509190942 15 59 9.7 9.7 0.00 0.00 0.00 61 1015.4
20260509190842 15 62 8.0 9.7 0.00 0.00 0.00 61 1015.4
20260509190742 15 59 8.0 9.7 0.00 0.00 0.00 61 1015.4
20260509190642 15 60 8.0 9.7 0.00 0.00 0.00 61 1015.4
20260509190542 15 59 9.7 9.7 0.00 0.00 0.00 61 1015.4
20260509190442 15 62 8.0 11.3 0.00 0.00 0.00 61 1015.4
20260509190342 15 64 8.0 9.7 0.00 0.00 0.00 61 1015.4
20260509190242 15 64 9.7 9.7 0.00 0.00 0.00 61 1015.4
20260509190141 15 61 9.7 11.3 0.00 0.00 0.00 61 1015.4
20260509190041 15 61 8.0 9.7 0.00 0.00 0.00 60 1015.4
20260509185941 15 61 8.0 11.3 0.00 0.00 0.00 60 1015.3
20260509185841 15 62 8.0 8.0 0.00 0.00 0.00 60 1015.3
20260509185741 15 63 8.0 8.0 0.00 0.00 0.00 60 1015.3
20260509185641 15 66 8.0 8.0 0.00 0.00 0.00 60 1015.2
20260509185541 15 66 4.8 8.0 0.00 0.00 0.00 60 1015.3
20260509185441 15 65 4.8 4.8 0.00 0.00 0.00 60 1015.3
20260509185341 16 73 4.8 8.0 0.00 0.00 0.00 59 1015.3
20260509185241 16 72 4.8 8.0 0.00 0.00 0.00 59 1015.3
20260509185141 16 74 4.8 8.0 0.00 0.00 0.00 59 1015.2
20260509185040 16 68 4.8 8.0 0.00 0.00 0.00 59 1015.2
20260509184940 16 64 8.0 8.0 0.00 0.00 0.00 59 1015.2
20260509184840 16 64 8.0 9.7 0.00 0.00 0.00 58 1015.2
20260509184740 16 73 9.7 11.3 0.00 0.00 0.00 58 1015.2
20260509184640 16 75 8.0 11.3 0.00 0.00 0.00 58 1015.2
20260509184540 16 76 9.7 8.0 0.00 0.00 0.00 58 1015.2
20260509184440 16 89 9.7 12.9 0.00 0.00 0.00 58 1015.2
20260509184340 16 82 9.7 11.3 0.00 0.00 0.00 58 1015.2
20260509184240 16 82 9.7 11.3 0.00 0.00 0.00 58 1015.3
20260509184140 16 76 11.3 14.5 0.00 0.00 0.00 57 1015.3
20260509184040 16 78 9.7 14.5 0.00 0.00 0.00 57 1015.3
20260509183940 16 83 9.7 11.3 0.00 0.00 0.00 58 1015.3
20260509183840 16 79 11.3 14.5 0.00 0.00 0.00 58 1015.3
20260509183740 16 86 11.3 19.3 0.00 0.00 0.00 58 1015.3
20260509183639 16 89 9.7 14.5 0.00 0.00 0.00 58 1015.3
20260509183539 16 79 9.7 12.9 0.00 0.00 0.00 58 1015.4
20260509183439 16 84 11.3 12.9 0.00 0.00 0.00 58 1015.3
20260509183339 16 83 11.3 14.5 0.00 0.00 0.00 58 1015.3
20260509183239 16 81 11.3 12.9 0.00 0.00 0.00 58 1015.4
20260509183139 16 80 11.3 12.9 0.00 0.00 0.00 58 1015.4
20260509183039 16 73 11.3 12.9 0.00 0.00 0.00 59 1015.4
20260509182939 16 80 11.3 14.5 0.00 0.00 0.00 59 1015.4
20260509182839 16 73 9.7 14.5 0.00 0.00 0.00 59 1015.4
20260509182739 16 81 9.7 11.3 0.00 0.00 0.00 58 1015.4
20260509182639 16 77 9.7 12.9 0.00 0.00 0.00 59 1015.4
20260509182539 16 78 9.7 11.3 0.00 0.00 0.00 58 1015.4
20260509182439 16 76 9.7 14.5 0.00 0.00 0.00 58 1015.4
20260509182339 16 83 11.3 19.3 0.00 0.00 0.00 58 1015.4
20260509182238 16 79 11.3 19.3 0.00 0.00 0.00 59 1015.4
20260509182138 16 79 8.0 14.5 0.00 0.00 0.00 59 1015.3
20260509182038 16 76 11.3 16.1 0.00 0.00 0.00 58 1015.3
20260509181938 16 80 8.0 16.1 0.00 0.00 0.00 59 1015.3
20260509181838 16 76 9.7 9.7 0.00 0.00 0.00 59 1015.3
20260509181738 16 88 8.0 11.3 0.00 0.00 0.00 58 1015.4
20260509181638 16 85 9.7 14.5 0.00 0.00 0.00 59 1015.3
20260509181538 16 83 9.7 14.5 0.00 0.00 0.00 59 1015.4
20260509181438 16 85 11.3 14.5 0.00 0.00 0.00 59 1015.4
20260509181338 16 82 9.7 14.5 0.00 0.00 0.00 59 1015.4
20260509181238 16 92 9.7 11.3 0.00 0.00 0.00 59 1015.4
20260509181138 16 88 11.3 12.9 0.00 0.00 0.00 58 1015.4
20260509181038 16 98 9.7 14.5 0.00 0.00 0.00 59 1015.4
20260509180938 16 101 11.3 14.5 0.00 0.00 0.00 58 1015.4
20260509180838 16 103 9.7 14.5 0.00 0.00 0.00 59 1015.4
20260509180738 16 101 11.3 14.5 0.00 0.00 0.00 59 1015.4
20260509180638 16 86 9.7 14.5 0.00 0.00 0.00 59 1015.4
20260509180537 16 104 9.7 11.3 0.00 0.00 0.00 58 1015.5
20260509180437 16 112 11.3 12.9 0.00 0.00 0.00 58 1015.5
20260509180337 16 92 11.3 14.5 0.00 0.00 0.00 58 1015.5
20260509180237 16 110 11.3 16.1 0.00 0.00 0.00 58 1015.5
20260509180137 16 97 11.3 12.9 0.00 0.00 0.00 58 1015.5
20260509180037 16 89 9.7 12.9 0.00 0.00 0.00 57 1015.5
20260509175937 16 101 9.7 14.5 0.00 0.00 0.00 58 1015.5
20260509175837 16 107 9.7 11.3 0.00 0.00 0.00 57 1015.5
20260509175737 16 98 12.9 16.1 0.00 0.00 0.00 57 1015.4
20260509175637 16 100 12.9 20.9 0.00 0.00 0.00 57 1015.5
20260509175537 16 95 11.3 12.9 0.00 0.00 0.00 57 1015.4
20260509175437 16 105 12.9 16.1 0.00 0.00 0.00 57 1015.5
20260509175337 16 103 12.9 16.1 0.00 0.00 0.00 56 1015.4
20260509175237 16 97 12.9 19.3 0.00 0.00 0.00 57 1015.4
20260509175137 16 116 11.3 16.1 0.00 0.00 0.00 57 1015.4
20260509175037 16 105 9.7 16.1 0.00 0.00 0.00 57 1015.4
20260509174936 16 99 9.7 12.9 0.00 0.00 0.00 57 1015.4
20260509174836 16 109 8.0 11.3 0.00 0.00 0.00 58 1015.3
20260509174736 16 109 9.7 9.7 0.00 0.00 0.00 57 1015.3
20260509174636 16 107 11.3 14.5 0.00 0.00 0.00 58 1015.3
20260509174536 16 100 9.7 14.5 0.00 0.00 0.00 58 1015.3
20260509174436 16 103 9.7 12.9 0.00 0.00 0.00 57 1015.3
20260509174336 16 104 9.7 12.9 0.00 0.00 0.00 58 1015.3
20260509174236 16 113 11.3 14.5 0.00 0.00 0.00 58 1015.3
20260509174136 16 115 14.5 20.9 0.00 0.00 0.00 58 1015.3
20260509174036 16 93 9.7 20.9 0.00 0.00 0.00 59 1015.3
20260509173936 16 102 9.7 12.9 0.00 0.00 0.00 59 1015.3
20260509173836 16 110 9.7 12.9 0.00 0.00 0.00 59 1015.3
20260509173736 16 104 9.7 11.3 0.00 0.00 0.00 59 1015.3
20260509173636 16 112 11.3 14.5 0.00 0.00 0.00 59 1015.3
20260509173536 16 115 11.3 12.9 0.00 0.00 0.00 59 1015.3
20260509173436 16 117 9.7 11.3 0.00 0.00 0.00 59 1015.3
20260509173336 16 117 9.7 12.9 0.00 0.00 0.00 59 1015.3
20260509173236 16 97 9.7 9.7 0.00 0.00 0.00 59 1015.3
20260509173135 16 107 11.3 14.5 0.00 0.00 0.00 59 1015.3
20260509173035 16 116 11.3 19.3 0.00 0.00 0.00 58 1015.3
20260509172935 16 121 14.5 19.3 0.00 0.00 0.00 58 1015.3
20260509172835 16 120 12.9 19.3 0.00 0.00 0.00 59 1015.3
20260509172735 16 108 12.9 16.1 0.00 0.00 0.00 58 1015.3
20260509172635 16 109 12.9 16.1 0.00 0.00 0.00 59 1015.3
20260509172535 16 113 12.9 19.3 0.00 0.00 0.00 58 1015.3
20260509172435 16 97 16.1 19.3 0.00 0.00 0.00 58 1015.3
20260509172335 16 109 16.1 24.1 0.00 0.00 0.00 59 1015.3
20260509172205 16 117 14.5 16.1 0.00 0.00 0.00 58 1015.2
20260509172105 16 122 12.9 19.3 0.00 0.00 0.00 58 1015.2
20260509172005 16 110 11.3 19.3 0.00 0.00 0.00 58 1015.2
20260509171904 16 119 11.3 12.9 0.00 0.00 0.00 58 1015.2
20260509171804 16 112 11.3 14.5 0.00 0.00 0.00 58 1015.2
20260509171704 16 102 12.9 16.1 0.00 0.00 0.00 59 1015.2
20260509171534 16 115 14.5 19.3 0.00 0.00 0.00 59 1015.2
20260509171434 16 120 12.9 19.3 0.00 0.00 0.00 58 1015.2
20260509171334 16 117 14.5 19.3 0.00 0.00 0.00 58 1015.2
20260509171234 16 116 14.5 19.3 0.00 0.00 0.00 57 1015.2
20260509171104 16 113 12.9 20.9 0.00 0.00 0.00 58 1015.3
20260509171004 16 102 9.7 16.1 0.00 0.00 0.00 59 1015.3
20260509170904 16 99 12.9 14.5 0.00 0.00 0.00 58 1015.2
20260509170804 16 100 14.5 16.1 0.00 0.00 0.00 57 1015.3
20260509170704 16 119 12.9 19.3 0.00 0.00 0.00 59 1015.3
20260509170534 16 105 12.9 16.1 0.00 0.00 0.00 58 1015.3
20260509170434 16 121 14.5 19.3 0.00 0.00 0.00 59 1015.3
20260509170334 16 116 14.5 19.3 0.00 0.00 0.00 59 1015.3
20260509170234 16 110 16.1 19.3 0.00 0.00 0.00 59 1015.3
20260509170134 16 94 16.1 20.9 0.00 0.00 0.00 59 1015.3
20260509170034 16 122 16.1 19.3 0.00 0.00 0.00 59 1015.3
20260509165933 16 136 19.3 22.5 0.00 0.00 0.00 59 1015.3
20260509165833 16 126 19.3 20.9 0.00 0.00 0.00 59 1015.3
20260509165733 16 126 19.3 24.1 0.00 0.00 0.00 58 1015.4
20260509165633 16 130 19.3 24.1 0.00 0.00 0.00 58 1015.4
20260509165533 16 126 14.5 24.1 0.00 0.00 0.00 58 1015.4
20260509165433 16 127 19.3 19.3 0.00 0.00 0.00 58 1015.4
20260509165306 16 121 16.1 22.5 0.00 0.00 0.00 59 1015.4
20260509165203 16 138 14.5 20.9 0.00 0.00 0.00 59 1015.4
20260509165103 16 139 16.1 22.5 0.00 0.00 0.00 59 1015.4
20260509165003 16 123 14.5 19.3 0.00 0.00 0.00 59 1015.5
20260509164903 16 126 14.5 19.3 0.00 0.00 0.00 59 1015.4
20260509164803 16 134 16.1 20.9 0.00 0.00 0.00 59 1015.5
20260509164703 16 126 14.5 19.3 0.00 0.00 0.00 59 1015.4
20260509164603 16 131 14.5 19.3 0.00 0.00 0.00 59 1015.4
20260509164502 16 128 16.1 19.3 0.00 0.00 0.00 60 1015.5
20260509164333 16 119 20.9 27.4 0.00 0.00 0.00 58 1015.5
20260509164232 16 120 16.1 24.1 0.00 0.00 0.00 58 1015.5
20260509164132 16 134 14.5 19.3 0.00 0.00 0.00 59 1015.5
20260509164032 16 136 14.5 19.3 0.00 0.00 0.00 59 1015.5
20260509163932 16 121 14.5 19.3 0.00 0.00 0.00 58 1015.5
20260509163832 16 117 14.5 19.3 0.00 0.00 0.00 59 1015.5
20260509163732 16 129 12.9 19.3 0.00 0.00 0.00 59 1015.5
20260509163632 16 110 12.9 19.3 0.00 0.00 0.00 58 1015.5
20260509163532 16 120 16.1 19.3 0.00 0.00 0.00 58 1015.5
20260509163432 16 109 14.5 20.9 0.00 0.00 0.00 59 1015.6
20260509163332 16 118 14.5 19.3 0.00 0.00 0.00 59 1015.5
20260509163232 16 125 12.9 19.3 0.00 0.00 0.00 60 1015.6
20260509163132 16 111 11.3 16.1 0.00 0.00 0.00 60 1015.6
20260509163032 16 122 12.9 19.3 0.00 0.00 0.00 60 1015.6
20260509162932 16 111 11.3 16.1 0.00 0.00 0.00 61 1015.6
20260509162831 16 121 12.9 14.5 0.00 0.00 0.00 61 1015.6
20260509162731 15 119 16.1 19.3 0.00 0.00 0.00 60 1015.6
20260509162631 15 129 16.1 20.9 0.00 0.00 0.00 59 1015.6
20260509162531 16 127 20.9 25.7 0.00 0.00 0.00 60 1015.6
20260509162431 16 124 16.1 22.5 0.00 0.00 0.00 60 1015.6
20260509162331 16 127 14.5 19.3 0.00 0.00 0.00 59 1015.5
20260509162231 16 122 16.1 19.3 0.00 0.00 0.00 59 1015.5
20260509162131 16 113 14.5 24.1 0.00 0.00 0.00 59 1015.5
20260509162031 16 123 12.9 19.3 0.00 0.00 0.00 59 1015.5
20260509161931 16 134 12.9 19.3 0.00 0.00 0.00 59 1015.5
20260509161831 16 121 14.5 20.9 0.00 0.00 0.00 59 1015.5
20260509161731 16 128 11.3 19.3 0.00 0.00 0.00 59 1015.5
20260509161631 16 139 12.9 14.5 0.00 0.00 0.00 60 1015.5
20260509161531 16 112 14.5 19.3 0.00 0.00 0.00 59 1015.6
20260509161431 16 111 14.5 19.3 0.00 0.00 0.00 60 1015.6
20260509161331 16 117 14.5 19.3 0.00 0.00 0.00 59 1015.6
20260509161231 16 114 12.9 19.3 0.00 0.00 0.00 59 1015.6
20260509161130 16 129 12.9 19.3 0.00 0.00 0.00 59 1015.5
20260509161000 16 124 14.5 19.3 0.00 0.00 0.00 60 1015.6
20260509160900 16 124 14.5 16.1 0.00 0.00 0.00 59 1015.6
20260509160800 16 126 12.9 19.3 0.00 0.00 0.00 59 1015.6
20260509160700 16 108 14.5 19.3 0.00 0.00 0.00 58 1015.6
20260509160600 16 121 14.5 20.9 0.00 0.00 0.00 59 1015.6
20260509160500 16 130 11.3 19.3 0.00 0.00 0.00 59 1015.6
20260509160400 16 109 11.3 14.5 0.00 0.00 0.00 59 1015.6
20260509160300 16 118 14.5 19.3 0.00 0.00 0.00 59 1015.6
20260509160200 16 127 14.5 19.3 0.00 0.00 0.00 58 1015.6
20260509160100 16 122 12.9 19.3 0.00 0.00 0.00 59 1015.6
20260509160000 16 106 12.9 19.3 0.00 0.00 0.00 58 1015.6
20260509155900 16 118 16.1 24.1 0.00 0.00 0.00 58 1015.6
20260509155800 16 114 11.3 27.4 0.00 0.00 0.00 59 1015.6
20260509155700 16 115 11.3 16.1 0.00 0.00 0.00 58 1015.6
20260509155559 16 135 14.5 20.9 0.00 0.00 0.00 59 1015.6
20260509155459 16 108 14.5 19.3 0.00 0.00 0.00 58 1015.6
20260509155359 16 111 14.5 20.9 0.00 0.00 0.00 58 1015.6
20260509155159 16 100 12.9 19.3 0.00 0.00 0.00 58 1015.6
20260509155059 16 110 16.1 20.9 0.00 0.00 0.00 57 1015.6
20260509155010 16 114 19.3 24.1 0.00 0.00 0.00 58 1015.6
20260509154759 16 125 14.5 19.3 0.00 0.00 0.00 58 1015.6
20260509154659 16 131 16.1 22.5 0.00 0.00 0.00 58 1015.6
20260509154559 16 128 16.1 22.5 0.00 0.00 0.00 58 1015.6
20260509154459 16 122 19.3 22.5 0.00 0.00 0.00 57 1015.6
20260509154258 16 121 12.9 20.9 0.00 0.00 0.00 58 1015.6
20260509154252 16 150 11.3 19.3 0.00 0.00 0.00 58 1015.6
20260509153958 16 133 12.9 16.1 0.00 0.00 0.00 57 1015.5
20260509153858 16 135 14.5 19.3 0.00 0.00 0.00 57 1015.6
20260509153758 16 139 12.9 19.3 0.00 0.00 0.00 57 1015.5
20260509153658 16 144 12.9 19.3 0.00 0.00 0.00 57 1015.5
20260509153558 16 127 16.1 19.3 0.00 0.00 0.00 56 1015.5
20260509153458 16 128 14.5 22.5 0.00 0.00 0.00 57 1015.5
20260509153358 17 135 12.9 19.3 0.00 0.00 0.00 57 1015.5
20260509153258 17 127 14.5 20.9 0.00 0.00 0.00 56 1015.5
20260509153158 17 122 16.1 22.5 0.00 0.00 0.00 56 1015.5
20260509153058 17 134 16.1 20.9 0.00 0.00 0.00 56 1015.5
20260509152958 17 124 12.9 25.7 0.00 0.00 0.00 56 1015.6
20260509152857 17 145 12.9 16.1 0.00 0.00 0.00 56 1015.6
20260509152757 17 124 12.9 20.9 0.00 0.00 0.00 56 1015.6
20260509152657 17 130 12.9 16.1 0.00 0.00 0.00 57 1015.6
20260509152557 17 161 12.9 19.3 0.00 0.00 0.00 56 1015.5
20260509152457 17 122 14.5 19.3 0.00 0.00 0.00 57 1015.5
20260509152357 17 114 16.1 19.3 0.00 0.00 0.00 56 1015.5
20260509152257 17 143 11.3 20.9 0.00 0.00 0.00 57 1015.6
20260509152157 17 148 11.3 14.5 0.00 0.00 0.00 57 1015.5
20260509152057 17 139 12.9 19.3 0.00 0.00 0.00 57 1015.6
20260509151957 17 143 11.3 20.9 0.00 0.00 0.00 57 1015.6
20260509151857 17 140 14.5 19.3 0.00 0.00 0.00 57 1015.6
20260509151757 17 158 14.5 19.3 0.00 0.00 0.00 58 1015.6
20260509151657 17 146 12.9 19.3 0.00 0.00 0.00 58 1015.6
20260509151556 17 139 14.5 19.3 0.00 0.00 0.00 58 1015.6
20260509151456 17 135 12.9 19.3 0.00 0.00 0.00 59 1015.6
20260509151356 16 127 14.5 19.3 0.00 0.00 0.00 58 1015.6
20260509151256 16 136 14.5 22.5 0.00 0.00 0.00 58 1015.6
20260509151156 16 132 12.9 19.3 0.00 0.00 0.00 59 1015.6
20260509151056 16 123 14.5 19.3 0.00 0.00 0.00 57 1015.6
20260509150956 16 138 16.1 20.9 0.00 0.00 0.00 58 1015.6
20260509150856 16 144 12.9 22.5 0.00 0.00 0.00 58 1015.6
20260509150756 16 112 12.9 19.3 0.00 0.00 0.00 59 1015.6
20260509150656 16 131 11.3 16.1 0.00 0.00 0.00 59 1015.6
20260509150556 16 136 11.3 14.5 0.00 0.00 0.00 59 1015.7
20260509150456 16 146 9.7 14.5 0.00 0.00 0.00 58 1015.7
20260509150356 16 142 14.5 19.3 0.00 0.00 0.00 57 1015.7
20260509150255 16 144 16.1 20.9 0.00 0.00 0.00 56 1015.7
20260509150156 17 127 16.1 22.5 0.00 0.00 0.00 56 1015.7
20260509150055 17 141 11.3 22.5 0.00 0.00 0.00 58 1015.7
20260509145955 17 142 11.3 12.9 0.00 0.00 0.00 57 1015.7
20260509145855 17 118 12.9 16.1 0.00 0.00 0.00 57 1015.8
20260509145755 17 117 12.9 16.1 0.00 0.00 0.00 57 1015.8
20260509145655 17 148 11.3 16.1 0.00 0.00 0.00 57 1015.8
20260509145555 17 126 12.9 16.1 0.00 0.00 0.00 56 1015.8
20260509145455 17 121 11.3 20.9 0.00 0.00 0.00 58 1015.8
20260509145355 17 144 14.5 20.9 0.00 0.00 0.00 57 1015.8
20260509145255 17 131 16.1 19.3 0.00 0.00 0.00 55 1015.8
20260509145155 17 129 14.5 22.5 0.00 0.00 0.00 57 1015.8
20260509145055 17 131 11.3 19.3 0.00 0.00 0.00 58 1015.9
20260509144955 17 143 14.5 19.3 0.00 0.00 0.00 57 1015.9
20260509144855 17 129 14.5 22.5 0.00 0.00 0.00 56 1015.9
20260509144755 17 141 16.1 22.5 0.00 0.00 0.00 57 1015.9
20260509144655 17 137 14.5 20.9 0.00 0.00 0.00 57 1015.9
20260509144555 17 133 12.9 19.3 0.00 0.00 0.00 57 1015.9
20260509144455 17 140 12.9 19.3 0.00 0.00 0.00 56 1015.9
20260509144354 17 134 12.9 25.7 0.00 0.00 0.00 56 1016.0
20260509144254 17 144 14.5 19.3 0.00 0.00 0.00 56 1016.0
20260509144154 17 153 12.9 22.5 0.00 0.00 0.00 56 1016.0
20260509144054 17 143 14.5 19.3 0.00 0.00 0.00 56 1016.0
20260509143954 17 134 14.5 19.3 0.00 0.00 0.00 57 1016.0
20260509143854 17 136 9.7 20.9 0.00 0.00 0.00 56 1016.0
20260509143754 17 152 12.9 14.5 0.00 0.00 0.00 56 1016.0
20260509143654 17 158 16.1 22.5 0.00 0.00 0.00 56 1016.0
20260509143554 17 135 19.3 20.9 0.00 0.00 0.00 55 1016.0
20260509143424 17 124 19.3 24.1 0.00 0.00 0.00 55 1016.1
20260509143324 17 127 16.1 20.9 0.00 0.00 0.00 55 1016.0
20260509143224 17 137 14.5 20.9 0.00 0.00 0.00 55 1016.0
20260509143125 17 156 16.1 20.9 0.00 0.00 0.00 55 1016.0
20260509143025 17 141 14.5 24.1 0.00 0.00 0.00 55 1016.1